GEFSNGP_850_meantemp_000.txt.gz
Temperature
15 16 16 15 15 15 15 16 16 18 18 19 19 17 16 15 14 13 12 10 9 8 7 7 7 7 7 6 6 6 5 5 4 4 3 3 2 1 1 1 1 1 0 -0
14 13 15 15 15 15 15 16 17 18 18 18 17 15 15 14 13 12 11 9 9 8 7 7 7 6 6 6 5 5 4 4 3 3 2 2 1 1 0 0 0 -0 -1 -1
14 13 14 13 15 15 15 16 17 16 18 16 14 14 14 13 12 12 10 10 9 8 7 7 6 6 5 5 4 4 3 3 2 2 1 1 0 -0 -0 -0 -0 -1 -1 -2
12 12 11 15 13 15 16 16 16 16 15 15 15 13 11 11 11 10 10 10 9 8 7 6 6 5 4 4 3 3 3 2 1 1 0 -0 -0 -1 -0 -1 -1 -2 -3 -4
10 11 14 14 12 12 13 14 14 14 14 13 11 11 10 8 9 10 10 9 9 8 7 6 5 4 3 3 3 2 2 1 0 -0 -0 -1 -1 -1 -1 -1 -2 -3 -4 -5
10 12 13 14 12 12 14 15 12 13 12 11 11 13 12 8 9 9 9 8 8 7 5 4 4 3 2 2 2 1 1 0 -0 -1 -1 -1 -1 -1 -2 -3 -4 -4 -5 -6
11 11 13 13 12 12 14 13 10 11 11 11 12 11 9 8 8 8 8 7 6 5 4 3 3 2 2 1 1 1 0 -0 -1 -1 -1 -1 -2 -2 -3 -4 -5 -5 -6 -7
11 9 10 11 10 11 12 9 10 10 9 9 8 8 8 8 8 7 7 6 5 4 3 3 2 1 1 0 0 -0 -0 -1 -1 -2 -2 -2 -3 -3 -4 -5 -6 -6 -7 -7
12 11 9 8 9 9 9 9 9 8 8 9 8 8 7 7 7 7 6 5 4 3 2 1 1 1 -0 -0 -1 -1 -1 -1 -2 -2 -3 -3 -4 -4 -5 -6 -7 -7 -8 -8
10 9 8 7 7 8 8 9 9 9 8 8 8 7 7 7 6 6 5 4 3 2 1 1 0 -0 -1 -1 -1 -1 -1 -2 -3 -3 -3 -4 -5 -6 -6 -7 -8 -8 -8 -8
9 8 7 7 7 8 9 9 8 8 8 7 7 7 6 6 5 4 4 3 2 1 -0 -1 -1 -1 -1 -1 -1 -2 -2 -3 -3 -4 -5 -5 -6 -6 -7 -8 -8 -9 -9 -9
12 10 11 9 7 8 8 8 8 7 7 7 6 6 6 5 4 3 2 2 1 -0 -1 -1 -2 -2 -2 -2 -2 -3 -3 -4 -4 -4 -5 -6 -7 -7 -8 -9 -10 -9 -9 -10
10 9 8 8 7 7 8 7 7 6 6 6 6 5 5 4 3 2 1 0 -0 -1 -2 -2 -2 -2 -2 -3 -3 -4 -4 -4 -5 -6 -6 -7 -8 -8 -9 -9 -10 -10 -10 -10
8 8 5 6 6 7 7 6 6 6 6 5 5 4 4 3 1 0 -0 -1 -1 -1 -2 -2 -2 -3 -3 -3 -4 -4 -4 -5 -6 -7 -8 -9 -9 -9 -9 -10 -10 -10 -10 -10
6 7 7 7 6 6 6 6 6 5 5 4 4 3 2 1 -0 -1 -2 -1 -1 -2 -2 -2 -3 -3 -4 -4 -4 -4 -5 -6 -6 -7 -8 -9 -10 -10 -10 -10 -10 -10 -10 -10
6 6 6 6 6 6 5 5 5 4 4 3 2 2 1 0 -1 -1 -1 -2 -2 -2 -3 -3 -3 -4 -4 -4 -5 -5 -6 -6 -7 -8 -9 -10 -10 -10 -10 -10 -10 -10 -10 -10
5 4 5 5 5 5 5 4 4 3 2 2 1 1 0 0 -1 -1 -2 -2 -3 -3 -3 -4 -4 -4 -4 -5 -5 -6 -6 -7 -8 -9 -10 -10 -11 -11 -10 -10 -11 -11 -11 -11
7 7 7 6 5 5 4 3 3 2 2 1 1 1 0 -1 -1 -2 -2 -3 -3 -3 -4 -4 -4 -5 -5 -5 -6 -6 -7 -8 -9 -10 -11 -11 -11 -11 -11 -11 -11 -11 -11 -12
6 6 5 5 4 4 3 2 2 2 1 1 1 0 -1 -1 -2 -3 -3 -3 -3 -4 -4 -5 -5 -5 -6 -6 -6 -7 -8 -9 -10 -11 -11 -11 -11 -11 -11 -12 -12 -12 -12 -12
5 5 4 4 3 3 2 2 2 1 1 0 -0 -1 -1 -2 -2 -3 -3 -3 -4 -4 -5 -5 -5 -6 -6 -7 -7 -8 -10 -11 -11 -11 -11 -11 -12 -12 -12 -12 -12 -13 -13 -13
4 4 4 3 3 2 2 1 1 0 -0 -1 -1 -2 -2 -2 -3 -3 -3 -4 -5 -5 -5 -6 -6 -7 -7 -8 -9 -10 -10 -11 -11 -11 -12 -12 -12 -12 -13 -13 -13 -13 -14 -14
4 3 3 3 2 2 1 0 -0 -1 -1 -1 -2 -2 -3 -3 -3 -4 -5 -5 -5 -6 -6 -7 -7 -7 -8 -9 -10 -10 -10 -10 -11 -11 -11 -12 -12 -13 -13 -13 -14 -14 -14 -14
3 3 3 2 1 1 -0 -1 -1 -1 -2 -2 -3 -3 -3 -4 -4 -5 -6 -6 -6 -7 -7 -7 -8 -8 -9 -9 -10 -10 -10 -10 -11 -11 -11 -12 -12 -12 -13 -14 -14 -14 -14 -14
3 2 2 1 0 -1 -1 -1 -2 -2 -2 -3 -3 -4 -4 -5 -6 -6 -7 -7 -7 -7 -8 -8 -9 -9 -9 -10 -10 -10 -10 -11 -11 -11 -11 -12 -12 -13 -13 -14 -14 -14 -14 -14
2 1 0 -0 -1 -1 -2 -2 -2 -3 -4 -4 -4 -5 -6 -6 -7 -7 -7 -8 -8 -8 -8 -9 -9 -9 -10 -10 -10 -11 -11 -11 -11 -12 -13 -13 -12 -13 -13 -14 -14 -14 -14 -13
-0 -1 -1 -2 -2 -2 -2 -3 -4 -4 -5 -5 -6 -6 -7 -7 -8 -8 -8 -8 -8 -9 -9 -9 -9 -10 -10 -10 -11 -11 -11 -11 -12 -12 -12 -12 -13 -13 -13 -13 -13 -13 -13 -12
-1 -2 -2 -2 -3 -3 -4 -4 -5 -6 -6 -7 -7 -8 -8 -8 -8 -8 -9 -9 -9 -9 -9 -10 -10 -10 -11 -11 -11 -11 -12 -12 -12 -12 -12 -12 -12 -12 -12 -12 -12 -12 -12 -12

GEFSNGP_850_meantemp_006.txt.gz
Temperature
14 15 14 14 14 15 15 16 16 18 17 17 16 15 16 17 17 15 14 13 12 11 9 9 8 8 8 8 8 7 7 6 5 4 4 4 3 2 2 2 1 1 1 1
15 16 16 15 15 15 15 16 16 16 17 18 17 18 17 16 16 15 14 13 12 10 9 8 8 7 7 7 7 6 6 5 4 4 3 3 2 2 1 1 1 1 0 -1
14 15 15 15 15 15 15 15 16 15 16 17 16 16 16 17 16 15 14 12 11 10 9 8 7 7 6 6 6 5 5 4 3 3 3 2 1 1 1 0 0 -0 -1 -2
13 14 12 15 15 16 16 16 16 17 17 16 15 14 15 16 15 14 13 12 11 10 9 8 7 6 5 5 5 4 4 3 3 2 2 1 0 0 0 -0 -0 -1 -2 -2
11 13 13 15 14 15 16 16 17 16 16 13 12 11 10 12 12 12 11 10 9 9 8 7 6 5 5 4 4 3 3 2 2 1 1 0 0 0 -0 -1 -1 -2 -2 -3
11 12 12 14 14 14 15 15 15 16 14 11 12 10 8 9 10 10 9 9 8 8 7 6 5 5 4 3 3 2 2 2 1 0 -0 -0 -0 -0 -1 -2 -2 -2 -3 -4
10 11 12 13 13 14 13 13 13 14 13 11 11 10 8 8 9 9 8 8 8 7 6 6 5 4 3 3 2 2 1 1 0 -0 -0 -0 -1 -1 -2 -2 -2 -3 -4 -5
10 10 11 12 12 13 11 12 13 13 12 9 8 8 7 8 8 8 7 7 7 6 6 4 4 3 2 2 1 1 0 -0 -0 -0 -1 -1 -2 -2 -2 -3 -4 -5 -6 -6
11 11 11 12 12 11 12 12 11 11 10 9 7 7 7 7 7 7 7 6 6 5 4 3 3 2 2 1 0 -0 -0 -0 -0 -1 -1 -2 -3 -3 -3 -4 -5 -6 -7 -8
11 10 10 10 10 11 11 11 10 10 9 9 8 7 7 6 6 6 6 5 4 4 3 3 2 1 0 0 -0 -0 -1 -1 -1 -1 -2 -3 -3 -3 -4 -6 -7 -7 -8 -8
11 10 9 9 9 10 10 9 9 9 9 8 8 7 6 6 5 5 5 4 3 2 2 1 1 -0 -0 -0 -1 -1 -1 -1 -2 -3 -3 -3 -3 -4 -6 -7 -8 -8 -8 -8
11 10 9 9 9 9 9 8 8 8 8 7 8 7 6 6 5 5 4 3 2 1 0 0 -0 -0 -1 -1 -1 -1 -2 -2 -3 -3 -3 -4 -4 -5 -6 -7 -8 -8 -9 -9
13 12 12 10 8 8 8 8 8 8 8 7 7 6 6 6 5 4 3 2 1 0 -0 -0 -1 -1 -1 -1 -1 -2 -3 -3 -3 -4 -4 -5 -6 -7 -7 -7 -8 -9 -9 -9
11 11 8 8 7 7 7 8 8 7 7 7 6 6 5 5 4 3 2 1 0 -0 -1 -1 -1 -2 -1 -2 -2 -3 -3 -3 -4 -4 -5 -6 -7 -8 -9 -9 -9 -9 -10 -10
10 10 8 7 6 6 8 7 7 7 6 6 5 5 4 4 3 2 1 -0 -1 -1 -1 -1 -2 -2 -2 -3 -3 -3 -4 -4 -5 -5 -6 -7 -8 -9 -9 -10 -10 -10 -10 -10
8 8 7 6 6 6 7 7 7 6 6 5 4 4 3 3 2 1 -0 -1 -1 -1 -2 -2 -2 -3 -3 -3 -3 -4 -4 -5 -6 -6 -7 -8 -9 -9 -10 -10 -10 -11 -11 -11
7 5 5 5 5 6 6 6 6 6 5 4 4 3 2 2 1 0 -1 -1 -2 -2 -2 -3 -3 -3 -4 -4 -4 -5 -5 -6 -6 -7 -8 -9 -9 -10 -10 -10 -11 -11 -11 -11
10 9 8 7 6 6 6 6 5 5 4 3 2 2 2 1 1 -0 -1 -2 -2 -3 -3 -3 -4 -4 -4 -4 -5 -6 -6 -6 -7 -8 -9 -9 -10 -10 -10 -11 -11 -11 -11 -11
8 7 6 6 6 6 5 5 4 4 3 2 2 2 1 1 -0 -1 -2 -3 -3 -3 -3 -4 -4 -4 -5 -5 -6 -6 -7 -7 -8 -9 -9 -10 -10 -10 -11 -11 -11 -12 -12 -12
5 5 5 5 5 5 5 4 3 3 2 2 1 1 0 -0 -1 -2 -3 -4 -4 -4 -4 -4 -5 -5 -6 -6 -7 -7 -7 -8 -9 -9 -10 -10 -10 -11 -11 -11 -12 -12 -12 -13
5 5 5 5 4 4 4 3 3 2 1 1 0 -0 -1 -2 -2 -3 -3 -4 -4 -4 -5 -5 -6 -6 -7 -7 -7 -7 -8 -8 -9 -10 -10 -11 -11 -11 -11 -11 -11 -12 -13 -14
5 5 5 5 4 3 2 2 2 1 1 0 -1 -1 -2 -2 -3 -3 -4 -4 -5 -5 -6 -6 -7 -7 -7 -7 -7 -8 -9 -9 -10 -10 -10 -11 -11 -11 -11 -11 -12 -12 -13 -13
5 5 4 4 3 2 2 1 1 0 -0 -1 -1 -2 -2 -3 -4 -4 -5 -5 -6 -6 -7 -7 -7 -7 -7 -8 -8 -9 -9 -10 -10 -11 -11 -11 -11 -12 -12 -12 -12 -13 -13 -13
4 4 3 3 2 2 1 0 -0 -1 -1 -2 -2 -3 -3 -4 -5 -5 -6 -6 -7 -7 -7 -7 -7 -8 -8 -8 -9 -9 -10 -10 -11 -11 -12 -12 -12 -12 -12 -12 -12 -13 -12 -12
3 3 2 2 1 0 -0 -1 -1 -2 -2 -3 -3 -4 -5 -5 -6 -6 -6 -7 -7 -7 -7 -8 -8 -8 -9 -9 -10 -10 -11 -11 -11 -12 -12 -12 -12 -12 -12 -12 -12 -12 -12 -12
2 2 1 1 0 -1 -1 -2 -2 -3 -3 -4 -5 -5 -6 -6 -6 -7 -7 -7 -7 -8 -8 -8 -9 -9 -10 -10 -10 -11 -11 -11 -12 -12 -12 -12 -12 -12 -12 -12 -12 -12 -12 -12
1 1 -0 -1 -2 -2 -2 -2 -3 -4 -4 -5 -6 -6 -6 -7 -7 -7 -8 -8 -8 -9 -9 -9 -10 -10 -10 -11 -11 -11 -12 -12 -12 -12 -12 -12 -12 -12 -12 -12 -12 -12 -11 -11

GEFSNGP_850_meantemp_012.txt.gz
Temperature
6 7 8 9 9 9 9 9 9 10 11 13 13 12 11 12 11 10 9 9 10 10 10 10 10 9 8 8 8 7 7 7 6 5 5 4 4 3 2 2 1 1 1 0
7 9 9 9 9 9 9 9 9 10 11 13 12 11 11 11 11 10 9 9 10 10 10 10 9 8 8 7 7 6 6 6 5 4 4 3 3 2 2 1 1 0 -0 -0
9 10 10 10 10 10 10 10 11 11 12 12 12 11 10 11 11 11 10 9 10 10 10 10 9 8 8 7 6 5 5 4 4 3 3 3 2 1 1 1 0 -0 -1 -1
9 10 10 11 11 11 11 12 12 12 12 12 10 8 10 11 12 11 11 10 10 10 10 10 9 8 7 6 5 5 4 3 3 3 2 2 1 0 0 -0 -1 -1 -2 -2
8 10 11 12 12 12 12 12 12 11 9 8 9 10 9 11 12 12 11 11 11 11 10 9 8 7 6 5 4 4 3 3 2 2 2 1 0 -0 -1 -1 -1 -2 -2 -3
8 10 10 12 12 12 13 12 12 10 9 8 10 10 8 8 11 11 11 11 11 10 10 8 7 6 5 5 4 3 2 2 2 1 1 0 -0 -1 -1 -2 -2 -3 -3 -4
9 9 9 11 12 13 12 12 11 10 10 9 9 9 7 8 10 11 11 10 10 9 8 7 6 5 4 4 3 2 2 1 1 0 -0 -1 -1 -2 -2 -3 -3 -3 -4 -4
8 9 9 11 12 11 11 10 9 9 9 8 6 6 7 9 9 10 9 9 8 7 6 5 5 4 3 3 2 1 1 1 0 -0 -1 -2 -2 -2 -3 -3 -3 -4 -4 -5
9 9 9 10 11 11 11 9 8 8 9 9 6 6 7 8 8 8 7 7 6 6 5 4 3 3 2 2 1 1 0 -0 -1 -1 -2 -2 -3 -3 -3 -3 -4 -5 -6 -7
8 9 9 9 10 11 12 11 11 10 10 9 7 7 7 7 7 7 6 6 5 5 4 3 2 1 1 1 0 -0 -1 -1 -2 -2 -2 -3 -3 -3 -4 -4 -5 -6 -8 -9
8 9 8 9 10 11 11 11 10 9 9 9 8 8 7 7 6 6 5 4 4 4 3 2 1 0 0 -0 -1 -1 -1 -2 -2 -3 -3 -3 -3 -4 -4 -5 -7 -8 -9 -10
9 8 7 8 10 11 11 10 9 9 7 8 9 8 7 6 6 5 4 3 2 2 1 1 0 -0 -1 -1 -2 -2 -2 -3 -3 -3 -3 -3 -4 -4 -5 -6 -6 -7 -8 -9
11 11 10 9 9 10 10 9 9 9 8 8 7 7 6 6 5 4 3 2 1 1 0 -0 -1 -1 -2 -2 -2 -2 -3 -3 -3 -3 -4 -4 -4 -5 -6 -6 -7 -7 -8 -9
11 11 7 7 7 9 9 8 8 8 7 7 6 6 6 5 3 3 2 1 0 -0 -1 -1 -1 -2 -2 -2 -3 -3 -3 -3 -4 -4 -4 -5 -5 -7 -8 -8 -8 -8 -9 -9
10 11 9 7 7 8 8 8 7 6 6 6 6 5 5 4 3 2 1 0 -0 -1 -1 -2 -2 -2 -3 -3 -3 -3 -4 -4 -4 -4 -5 -6 -7 -7 -8 -9 -9 -9 -9 -9
9 8 8 7 7 7 7 7 6 6 5 5 5 4 3 3 2 1 -0 -1 -1 -1 -2 -2 -3 -3 -3 -3 -4 -4 -4 -4 -5 -5 -6 -6 -7 -8 -9 -9 -9 -10 -10 -10
7 4 5 5 6 6 7 7 7 6 5 4 4 3 2 2 1 -0 -1 -2 -2 -2 -2 -3 -3 -3 -3 -4 -4 -4 -5 -5 -6 -6 -7 -7 -8 -9 -9 -10 -10 -10 -10 -10
11 10 9 8 7 6 6 6 6 5 5 4 3 2 2 1 1 -1 -1 -2 -2 -2 -3 -3 -3 -4 -4 -4 -5 -5 -5 -6 -6 -7 -7 -8 -9 -9 -10 -10 -10 -10 -10 -10
9 8 6 6 6 6 6 5 5 4 4 3 2 1 0 0 -0 -1 -2 -2 -2 -3 -3 -4 -4 -4 -5 -5 -5 -6 -6 -6 -7 -7 -8 -8 -9 -9 -10 -10 -11 -11 -11 -11
6 6 5 5 6 6 5 5 4 3 3 2 1 1 -0 -1 -1 -2 -2 -3 -3 -4 -4 -4 -5 -5 -5 -6 -6 -6 -7 -7 -7 -8 -8 -9 -10 -10 -11 -11 -11 -11 -11 -11
5 4 5 5 5 5 5 4 3 2 1 1 1 1 0 -1 -2 -2 -3 -3 -4 -4 -5 -5 -5 -6 -6 -6 -6 -7 -7 -8 -8 -9 -9 -10 -10 -11 -11 -11 -11 -11 -11 -11
4 4 5 5 4 3 3 3 2 2 1 0 0 -0 -1 -2 -3 -3 -4 -4 -4 -5 -5 -6 -6 -6 -6 -6 -7 -7 -8 -8 -9 -9 -10 -10 -11 -11 -11 -11 -11 -11 -11 -11
3 4 4 4 3 2 1 1 1 1 0 -0 -1 -1 -2 -3 -3 -3 -4 -5 -5 -5 -6 -6 -6 -7 -7 -7 -8 -8 -9 -9 -10 -10 -10 -11 -11 -11 -11 -11 -11 -11 -11 -11
3 4 3 3 2 1 1 -0 -0 -1 -1 -2 -2 -3 -3 -3 -4 -4 -5 -5 -6 -6 -6 -7 -7 -7 -7 -8 -8 -9 -9 -10 -10 -11 -11 -11 -11 -11 -11 -11 -11 -11 -11 -11
3 3 3 2 2 1 0 -1 -1 -2 -2 -3 -4 -4 -5 -4 -4 -5 -5 -6 -6 -7 -7 -7 -7 -8 -8 -9 -9 -10 -10 -10 -11 -11 -11 -11 -11 -11 -11 -11 -11 -11 -11 -11
3 2 2 2 2 1 -0 -1 -2 -2 -3 -3 -4 -5 -5 -5 -5 -6 -6 -7 -7 -7 -7 -7 -8 -8 -9 -9 -10 -10 -10 -11 -11 -11 -11 -11 -11 -11 -11 -11 -11 -11 -11 -11
2 1 1 0 -0 -1 -1 -2 -2 -3 -3 -3 -4 -5 -6 -6 -6 -7 -7 -7 -7 -7 -8 -8 -8 -9 -9 -10 -10 -10 -11 -11 -11 -11 -11 -11 -11 -12 -12 -12 -12 -11 -11 -11

GEFSNGP_850_meantemp_018.txt.gz
Temperature
6 6 6 5 6 5 5 6 6 7 8 9 10 9 9 9 8 7 6 6 6 7 8 10 10 10 10 10 9 9 9 8 8 7 7 6 5 5 4 3 3 2 1 1
6 7 6 6 6 6 6 6 7 7 8 9 9 9 8 8 8 7 6 6 6 8 9 9 10 9 9 9 8 8 8 7 7 6 6 5 4 4 3 2 1 1 1 0
7 8 7 7 7 7 7 7 7 7 8 9 9 9 8 8 8 7 6 6 7 8 9 9 9 9 9 8 8 7 7 6 6 5 4 4 3 3 2 1 1 0 0 -0
7 8 9 9 9 9 8 8 9 9 9 9 9 8 8 8 8 8 7 7 7 8 9 9 9 8 8 8 7 6 6 5 4 4 3 3 2 2 1 0 0 -0 -0 -1
7 8 9 10 9 9 8 9 9 9 9 9 8 8 8 8 9 9 8 8 9 9 10 9 8 8 8 7 6 5 5 4 3 3 2 2 1 1 0 -0 -0 -1 -1 -2
7 8 9 10 10 9 9 9 10 9 9 8 8 9 8 7 9 9 9 9 9 9 9 9 8 8 7 6 5 4 4 3 2 2 1 1 0 0 -0 -1 -1 -1 -2 -2
8 8 8 9 8 9 10 11 9 9 9 8 7 8 6 8 9 9 9 9 9 9 9 8 8 7 6 5 4 3 2 2 1 1 1 0 -0 -1 -1 -1 -2 -2 -2 -3
7 8 8 9 8 9 9 9 8 8 9 8 6 5 7 8 8 9 8 8 8 8 8 7 7 6 5 4 3 2 2 1 1 0 -0 -0 -1 -1 -1 -2 -2 -3 -3 -3
7 8 8 8 9 9 8 8 7 7 8 8 6 5 6 6 7 7 8 8 8 8 7 6 5 5 4 3 2 1 1 0 0 -0 -1 -1 -1 -2 -2 -3 -3 -4 -4 -5
7 7 8 9 9 9 9 8 7 8 8 9 8 6 6 6 6 7 7 7 7 7 6 4 3 3 3 2 1 1 0 -0 -1 -1 -1 -2 -2 -2 -3 -3 -4 -5 -6 -7
7 8 8 9 9 9 9 9 8 7 7 8 8 7 7 6 6 6 6 6 6 5 4 3 2 1 1 1 0 -0 -0 -1 -1 -2 -2 -2 -3 -3 -4 -4 -5 -7 -8 -8
8 9 8 8 9 9 10 9 8 8 6 7 8 7 7 6 6 6 5 5 4 4 3 1 1 0 -0 -0 -1 -1 -1 -1 -2 -2 -2 -3 -3 -4 -4 -5 -6 -7 -8 -9
10 10 9 9 8 9 9 8 8 8 8 7 7 8 7 6 5 5 4 3 3 2 2 1 0 -0 -1 -1 -1 -1 -2 -2 -2 -3 -3 -4 -4 -5 -5 -5 -6 -7 -7 -8
10 10 8 8 8 8 9 8 8 8 8 8 7 7 7 6 4 3 3 2 2 1 1 -0 -0 -1 -1 -1 -2 -2 -2 -3 -3 -4 -4 -5 -5 -6 -6 -7 -7 -7 -7 -8
8 9 9 8 8 7 8 8 8 7 7 7 7 6 6 5 3 2 2 1 1 0 -0 -1 -1 -1 -2 -2 -2 -2 -3 -3 -4 -5 -5 -5 -6 -6 -7 -7 -8 -8 -9 -9
8 8 8 8 7 7 7 7 8 7 7 6 6 5 5 4 3 1 1 0 0 -0 -1 -1 -2 -2 -2 -3 -3 -3 -4 -4 -5 -5 -6 -6 -6 -7 -8 -8 -9 -9 -9 -10
7 5 5 5 6 6 7 8 8 7 7 6 5 5 4 3 2 1 -0 -1 -1 -1 -2 -2 -2 -3 -3 -3 -4 -4 -5 -5 -5 -6 -6 -7 -7 -8 -9 -9 -9 -10 -10 -10
10 10 10 10 9 7 7 8 8 7 7 6 5 4 4 3 2 1 -0 -1 -1 -2 -2 -3 -3 -3 -4 -4 -5 -5 -5 -6 -6 -6 -7 -7 -8 -9 -9 -10 -10 -10 -10 -10
9 9 8 8 8 8 7 7 7 7 6 5 5 4 3 2 1 0 -1 -1 -2 -2 -3 -3 -4 -4 -4 -5 -5 -6 -6 -6 -6 -7 -8 -8 -9 -9 -10 -10 -11 -11 -11 -10
8 8 7 6 7 7 7 7 7 6 5 4 4 3 2 1 0 -1 -1 -2 -3 -3 -3 -4 -4 -5 -5 -6 -6 -6 -6 -7 -7 -8 -8 -9 -9 -10 -10 -11 -11 -11 -11 -11
7 6 5 6 6 7 7 6 6 5 4 3 3 2 1 -0 -1 -1 -2 -2 -3 -4 -4 -5 -5 -5 -6 -6 -6 -6 -7 -7 -8 -9 -9 -10 -10 -10 -11 -11 -11 -11 -11 -11
5 4 4 5 6 6 6 5 5 4 3 2 2 1 1 -1 -2 -2 -3 -3 -4 -4 -5 -5 -5 -6 -6 -6 -6 -7 -7 -8 -9 -9 -10 -10 -11 -11 -11 -11 -11 -11 -11 -11
3 3 4 5 6 5 5 4 4 3 2 2 1 0 -0 -1 -2 -3 -3 -4 -5 -5 -5 -6 -6 -6 -6 -7 -7 -8 -8 -9 -10 -10 -10 -11 -11 -11 -11 -11 -11 -11 -11 -11
3 3 4 5 5 5 4 3 2 2 1 0 -0 -1 -1 -2 -3 -4 -4 -5 -5 -5 -6 -6 -6 -6 -7 -7 -8 -8 -9 -10 -10 -10 -10 -11 -11 -11 -11 -11 -11 -11 -11 -11
3 3 4 4 4 4 3 2 1 0 -0 -1 -2 -3 -3 -3 -3 -4 -5 -5 -5 -6 -6 -6 -7 -7 -7 -8 -9 -9 -10 -10 -10 -10 -11 -11 -11 -11 -11 -11 -12 -11 -11 -11
2 3 3 4 4 4 2 1 0 -1 -1 -2 -3 -3 -4 -4 -5 -5 -5 -5 -6 -6 -6 -7 -7 -8 -8 -9 -9 -10 -10 -10 -10 -11 -11 -11 -11 -11 -12 -12 -12 -12 -12 -11
1 2 3 3 3 2 1 1 0 -1 -1 -1 -2 -4 -4 -5 -5 -5 -6 -6 -6 -6 -7 -7 -8 -9 -9 -9 -10 -10 -10 -10 -11 -11 -11 -11 -12 -12 -12 -12 -12 -12 -12 -12

GEFSNGP_850_meantemp_024.txt.gz
Temperature
7 8 8 7 7 6 6 6 7 9 10 11 11 11 10 10 9 9 8 8 6 6 5 5 5 6 8 10 10 10 10 9 9 8 8 8 7 7 6 5 4 3 3 2
7 9 9 8 8 8 7 7 7 7 8 10 10 9 9 9 8 8 7 7 5 4 4 5 5 7 9 10 9 9 9 9 8 8 7 7 6 5 4 4 3 2 2 1
8 10 9 9 9 8 8 8 8 7 9 10 9 9 8 8 7 7 7 6 4 4 4 5 6 8 9 9 8 8 8 8 8 7 7 6 5 4 3 2 2 1 1 0
7 8 9 11 10 9 9 9 9 9 9 9 8 7 6 6 6 6 6 5 4 3 4 4 6 7 7 7 7 7 7 7 7 6 5 4 3 3 2 1 1 0 -0 -0
7 8 10 11 10 9 9 9 10 9 10 10 8 8 7 5 6 6 5 4 4 4 5 5 6 6 7 7 7 7 6 6 6 5 4 3 2 2 1 0 -0 -0 -1 -1
7 8 10 11 11 9 9 10 10 9 9 9 9 10 8 4 5 5 5 5 5 5 5 6 6 6 7 6 6 6 6 5 4 3 2 2 1 0 -0 -0 -1 -1 -1 -2
7 8 10 12 10 10 11 11 10 8 8 8 8 7 4 4 4 5 5 5 5 6 6 6 6 6 6 6 5 5 4 3 2 2 1 1 0 -0 -1 -1 -1 -2 -2 -2
8 8 10 12 10 11 11 9 8 7 7 6 4 3 4 4 4 5 5 5 5 6 6 6 6 6 6 5 4 3 3 2 1 1 0 -0 -1 -1 -1 -2 -2 -2 -2 -3
10 11 12 10 9 9 7 7 7 6 5 6 4 3 3 4 4 4 4 4 5 6 6 5 5 6 5 4 3 2 2 1 1 -0 -1 -1 -1 -2 -2 -2 -3 -3 -3 -3
10 11 11 10 9 7 7 5 5 5 5 6 5 4 4 4 4 4 4 4 5 5 5 5 4 4 4 3 2 1 1 0 -0 -1 -1 -2 -2 -2 -2 -3 -3 -4 -4 -5
10 11 11 10 7 7 7 6 5 5 5 6 6 4 4 4 4 4 4 4 5 5 5 4 3 3 2 2 1 0 -0 -1 -1 -1 -2 -2 -2 -3 -3 -3 -4 -5 -5 -6
12 12 11 10 7 7 6 5 5 5 4 4 5 5 4 4 4 4 4 4 4 4 3 3 2 1 1 -0 -0 -0 -1 -1 -2 -2 -2 -3 -3 -3 -4 -4 -5 -5 -6 -7
10 9 9 8 7 7 6 6 5 6 6 5 5 5 5 5 4 4 4 4 4 3 2 1 1 0 -1 -1 -1 -1 -1 -2 -2 -3 -3 -3 -3 -4 -4 -4 -5 -6 -7 -7
9 9 8 7 7 7 7 6 6 6 5 6 6 6 6 5 4 4 3 3 3 2 1 1 0 -1 -1 -2 -2 -2 -2 -2 -3 -3 -3 -4 -4 -4 -5 -5 -6 -6 -7 -8
9 8 8 8 7 6 6 6 6 6 6 5 5 5 5 4 3 3 2 2 1 1 0 -0 -1 -1 -2 -2 -2 -2 -3 -3 -3 -4 -4 -4 -5 -5 -6 -7 -7 -8 -8 -9
8 7 7 7 6 6 5 5 6 6 5 5 5 4 4 3 2 2 1 1 0 -0 -1 -1 -1 -2 -2 -3 -3 -3 -3 -4 -4 -4 -5 -5 -6 -6 -7 -8 -9 -9 -9 -10
7 5 5 5 5 5 5 6 6 6 6 5 5 4 3 2 1 1 -0 -0 -1 -1 -2 -2 -2 -2 -3 -3 -3 -4 -4 -4 -5 -5 -5 -6 -7 -8 -8 -9 -9 -10 -10 -10
8 8 8 8 7 6 5 6 6 6 6 5 4 3 3 2 1 -0 -1 -1 -2 -2 -3 -3 -3 -3 -3 -4 -4 -4 -4 -5 -5 -6 -6 -7 -8 -9 -9 -9 -10 -10 -10 -10
7 7 8 7 7 6 6 6 6 6 5 5 4 3 2 1 0 -1 -1 -2 -2 -2 -3 -3 -4 -4 -4 -4 -4 -5 -5 -5 -6 -6 -7 -8 -9 -9 -10 -10 -10 -10 -11 -11
7 7 7 6 6 6 7 7 6 6 5 5 4 3 1 0 -1 -1 -2 -2 -2 -2 -3 -3 -4 -4 -4 -4 -5 -5 -6 -6 -7 -7 -8 -9 -9 -10 -10 -10 -11 -11 -11 -11
6 7 6 6 5 6 7 7 6 6 5 4 3 2 1 -0 -1 -2 -2 -2 -3 -3 -4 -4 -4 -4 -5 -5 -5 -6 -6 -7 -7 -8 -9 -9 -10 -10 -10 -11 -11 -11 -11 -11
5 5 5 5 5 5 6 6 6 5 4 3 2 2 0 -1 -2 -2 -2 -2 -3 -3 -4 -4 -5 -5 -5 -5 -6 -6 -7 -8 -8 -9 -9 -10 -10 -10 -11 -11 -11 -11 -11 -12
4 4 4 4 4 5 5 5 5 5 4 3 2 1 0 -1 -2 -2 -2 -3 -3 -4 -4 -5 -5 -5 -5 -6 -6 -7 -8 -8 -9 -9 -10 -10 -11 -11 -11 -11 -12 -12 -12 -12
3 2 2 3 3 4 4 4 3 3 3 2 1 0 -0 -1 -2 -3 -2 -3 -4 -4 -5 -5 -5 -5 -6 -6 -7 -8 -8 -9 -9 -10 -10 -11 -11 -11 -11 -12 -12 -12 -12 -12
2 2 2 2 3 3 4 3 2 2 1 0 -1 -1 -2 -2 -2 -2 -3 -4 -4 -5 -5 -5 -6 -6 -6 -7 -8 -8 -9 -9 -10 -10 -11 -11 -11 -11 -12 -12 -12 -12 -12 -12
1 0 0 1 3 3 3 2 2 1 0 -1 -2 -3 -3 -3 -3 -3 -4 -4 -5 -5 -5 -6 -6 -7 -7 -8 -8 -9 -9 -10 -10 -10 -11 -11 -11 -12 -12 -12 -12 -12 -12 -12
-1 -1 -1 0 2 2 2 2 2 1 -0 -0 -2 -3 -3 -3 -4 -4 -4 -5 -5 -5 -6 -6 -7 -7 -8 -8 -9 -9 -10 -10 -10 -11 -11 -11 -11 -12 -12 -12 -12 -12 -11 -11

GEFSNGP_850_meantemp_030.txt.gz
Temperature
7 8 8 8 8 8 7 7 7 7 8 9 10 9 9 8 8 8 8 9 9 9 8 8 8 8 8 8 8 7 7 7 7 6 7 6 6 5 6 6 6 6 5 5
7 8 9 8 9 9 9 8 8 8 8 10 10 9 8 8 7 8 8 8 8 8 7 7 7 7 7 6 6 6 6 5 5 5 5 5 5 5 5 5 5 4 4 3
7 9 9 9 10 10 9 9 9 8 9 10 9 8 7 6 6 6 6 7 7 7 6 6 5 5 5 5 4 4 4 3 3 4 4 4 4 4 4 4 4 3 3 2
7 8 8 11 11 11 10 10 10 9 9 9 9 7 5 4 4 4 5 5 5 5 5 4 4 4 3 3 2 2 2 2 2 3 3 4 4 4 3 3 2 2 2 1
7 8 9 12 11 11 9 9 10 9 9 9 8 7 5 3 3 3 3 3 3 3 3 3 2 2 1 1 1 0 0 1 2 3 3 3 3 3 2 2 2 1 1 1
7 7 8 11 11 11 9 9 10 9 8 8 8 7 5 2 2 2 2 2 2 2 1 1 0 0 0 -0 0 0 1 1 2 3 3 3 2 2 2 1 1 1 0 -0
7 7 9 12 12 11 9 10 10 9 8 7 6 4 3 1 1 1 1 0 0 0 -0 -0 -0 0 0 1 1 1 2 2 2 2 2 2 2 1 1 1 0 0 -0 -1
7 7 8 12 12 11 10 10 9 8 7 6 4 3 2 1 1 0 -0 -0 -0 -0 -0 -0 0 1 1 1 1 2 2 2 2 2 2 1 1 1 0 0 -0 -1 -2 -2
9 9 12 13 12 11 10 9 8 7 7 6 4 2 1 1 1 1 0 0 0 0 0 0 1 2 3 2 2 2 2 2 1 1 1 1 0 -0 -0 -1 -1 -2 -3 -3
10 11 12 12 11 10 8 7 6 6 6 5 4 2 1 1 1 1 1 1 1 1 1 1 2 2 3 2 2 2 2 1 1 1 0 -0 -1 -1 -1 -2 -2 -3 -3 -4
10 11 12 11 9 8 7 6 5 5 5 4 4 2 2 1 1 1 1 1 2 3 3 2 2 2 2 2 2 2 1 1 0 -0 -1 -1 -1 -2 -2 -3 -3 -4 -4 -5
10 11 10 10 9 8 7 6 5 4 4 3 3 2 2 1 1 1 2 2 3 3 3 2 2 2 1 1 1 1 0 -0 -1 -1 -1 -1 -2 -2 -3 -4 -4 -5 -6 -6
11 11 10 9 8 7 6 5 4 4 4 3 2 3 3 2 2 2 3 3 3 3 3 2 2 1 0 0 0 0 -0 -1 -1 -1 -2 -2 -3 -3 -4 -4 -5 -6 -7 -8
11 10 10 9 8 7 6 5 4 4 3 3 3 3 3 2 2 2 3 3 3 3 2 2 1 1 -0 -0 -0 -1 -1 -1 -2 -2 -3 -3 -4 -4 -5 -6 -6 -7 -8 -9
10 9 9 8 7 6 5 5 4 3 3 3 3 3 3 3 3 3 3 3 3 2 2 1 1 -0 -1 -1 -1 -1 -1 -2 -2 -3 -3 -4 -4 -5 -6 -7 -7 -8 -8 -9
9 8 8 7 7 6 5 4 4 4 4 3 3 3 3 3 3 3 2 2 2 2 1 0 0 -1 -1 -1 -1 -2 -2 -3 -3 -4 -4 -5 -5 -6 -7 -8 -8 -9 -9 -10
7 7 7 6 6 5 5 5 5 5 5 4 4 4 3 3 3 2 2 1 1 1 -0 -0 -1 -1 -1 -2 -2 -3 -3 -4 -4 -4 -5 -6 -6 -7 -8 -8 -9 -9 -10 -10
6 6 7 7 7 5 4 4 5 5 5 5 4 4 3 3 3 2 1 1 0 -0 -1 -1 -1 -2 -2 -3 -3 -3 -4 -4 -5 -5 -6 -7 -7 -8 -8 -9 -9 -10 -10 -10
5 5 6 6 6 5 5 5 5 6 5 5 4 4 3 3 2 1 0 -0 -0 -1 -1 -2 -2 -2 -3 -3 -4 -4 -4 -5 -5 -6 -7 -7 -8 -9 -9 -10 -10 -10 -10 -11
4 4 5 5 5 4 4 5 5 5 5 5 4 4 3 2 1 0 -0 -1 -1 -1 -1 -2 -3 -3 -3 -4 -4 -4 -5 -5 -6 -7 -7 -8 -9 -9 -10 -10 -10 -11 -11 -11
3 4 4 4 4 4 4 5 5 5 5 5 4 4 3 1 0 0 -0 -1 -1 -2 -2 -3 -3 -3 -4 -4 -4 -5 -5 -6 -7 -7 -8 -9 -9 -10 -10 -10 -11 -11 -11 -11
2 3 3 3 3 3 3 4 4 5 5 4 4 3 2 1 -0 -0 -1 -1 -1 -2 -2 -3 -3 -4 -4 -5 -5 -5 -6 -7 -7 -8 -8 -9 -9 -10 -10 -11 -11 -11 -11 -11
2 2 2 2 2 2 2 3 3 4 5 4 4 3 2 1 1 0 -1 -1 -2 -2 -3 -3 -4 -4 -5 -5 -5 -6 -7 -7 -8 -8 -9 -9 -10 -10 -11 -11 -11 -11 -11 -11
1 1 1 1 1 1 1 1 2 3 4 4 3 2 2 1 0 -1 -1 -2 -2 -3 -3 -4 -4 -5 -5 -5 -6 -7 -7 -8 -8 -9 -9 -10 -10 -10 -11 -11 -11 -11 -11 -11
0 -0 -0 -0 -1 -1 0 1 1 2 2 2 2 1 1 1 1 -0 -1 -2 -3 -3 -4 -4 -4 -5 -5 -6 -6 -7 -8 -8 -9 -9 -10 -10 -10 -10 -11 -11 -11 -11 -11 -11
-1 -1 -2 -2 -2 -1 -1 -0 1 1 2 2 1 1 0 -0 -1 -1 -2 -3 -3 -4 -4 -4 -5 -5 -6 -6 -7 -7 -8 -8 -9 -9 -10 -10 -10 -11 -11 -11 -11 -11 -11 -10
-1 -2 -2 -3 -3 -2 -2 -1 0 1 2 2 2 0 -0 -1 -2 -2 -3 -3 -4 -4 -4 -5 -5 -6 -6 -7 -7 -8 -8 -9 -9 -10 -10 -10 -10 -10 -11 -10 -10 -10 -10 -10

GEFSNGP_850_meantemp_036.txt.gz
Temperature
5 6 6 6 6 6 5 5 5 6 6 8 9 9 8 7 6 5 5 5 6 6 7 7 7 8 8 8 8 8 9 9 9 9 9 8 8 7 7 6 5 4 4 3
5 6 6 5 6 6 6 6 6 7 7 9 9 9 7 5 4 4 3 4 5 5 6 6 6 6 7 7 7 7 7 7 7 6 6 6 5 5 4 3 3 2 2 2
5 6 6 6 7 7 7 7 7 7 8 9 8 8 5 3 2 2 2 3 3 4 5 5 5 5 5 5 5 5 5 4 4 4 4 3 3 3 2 1 1 1 1 1
5 6 6 9 10 9 8 9 8 9 9 9 8 6 3 2 1 1 1 2 2 3 3 4 4 4 4 4 4 4 3 3 2 2 2 1 1 1 0 0 0 0 1 1
6 6 6 8 10 9 9 8 9 8 8 8 7 5 3 2 1 0 1 1 1 2 2 2 2 3 3 3 2 2 2 1 1 1 1 0 0 -0 -0 0 0 0 0 0
6 6 7 9 10 10 9 8 9 8 8 7 6 6 5 2 1 1 0 1 1 1 1 1 1 1 1 1 1 1 0 0 0 0 0 0 -0 -0 0 0 0 -0 -0 -1
6 6 7 8 9 9 9 9 10 9 8 7 5 5 3 2 1 1 0 0 0 0 0 0 -0 0 0 -0 -0 -0 -0 -0 -0 -0 0 0 0 -0 -0 -0 -1 -1 -1 -2
6 6 7 9 9 9 9 10 9 8 7 6 5 4 3 2 2 1 0 0 0 0 0 -0 -0 -0 -0 -0 -0 -0 -0 -0 0 -0 -0 -0 -0 -1 -1 -1 -1 -2 -2 -2
6 8 9 10 10 10 9 8 8 7 7 6 5 3 3 2 2 2 1 1 1 1 0 0 0 1 1 0 0 0 0 0 -0 -0 -1 -1 -1 -1 -1 -2 -2 -2 -3 -3
7 7 8 10 10 10 9 8 8 7 6 6 5 4 2 2 2 2 2 2 1 1 1 1 1 1 1 1 0 0 0 -0 -1 -1 -1 -1 -2 -2 -2 -2 -2 -3 -3 -4
7 8 9 10 10 10 9 8 7 7 6 5 5 4 3 2 2 2 2 2 2 2 2 2 1 1 1 1 0 0 -0 -1 -1 -1 -1 -1 -2 -2 -2 -2 -3 -3 -4 -4
7 8 8 9 10 9 9 8 7 6 5 4 4 4 3 2 2 2 2 2 3 3 2 2 1 1 0 0 0 0 -0 -1 -1 -1 -1 -2 -2 -2 -3 -3 -4 -5 -5 -6
9 9 9 9 9 9 8 8 7 6 5 4 3 3 3 3 2 2 2 3 3 3 2 2 1 0 -0 -0 -0 -0 -0 -1 -1 -1 -2 -2 -3 -3 -4 -5 -6 -6 -7 -8
8 8 8 9 9 8 8 7 6 5 4 4 3 2 2 2 2 2 2 2 2 2 2 1 0 -0 -1 -1 -1 -1 -1 -1 -2 -2 -3 -3 -3 -4 -5 -5 -6 -7 -7 -8
7 7 7 8 8 7 7 6 5 4 3 3 2 2 2 2 2 2 2 2 2 2 1 0 0 -0 -1 -1 -1 -1 -2 -2 -2 -3 -3 -4 -4 -5 -6 -6 -7 -7 -8 -8
5 6 7 7 7 6 6 5 5 4 3 3 2 2 2 2 2 2 2 2 2 1 1 0 -0 -1 -1 -2 -2 -2 -2 -2 -3 -3 -4 -4 -5 -6 -6 -7 -8 -8 -9 -9
3 4 5 5 6 6 5 5 5 4 4 3 3 2 2 2 2 2 1 1 1 1 0 -0 -1 -1 -2 -2 -2 -2 -2 -3 -3 -4 -4 -5 -6 -6 -7 -8 -8 -9 -9 -10
1 2 3 4 4 5 5 4 4 4 4 3 3 2 2 2 2 2 1 0 -0 -0 -1 -1 -1 -1 -2 -2 -2 -3 -3 -3 -4 -4 -5 -6 -6 -7 -8 -8 -9 -9 -9 -10
1 2 3 4 4 5 5 5 4 3 3 3 3 2 2 2 2 2 1 0 -0 -0 -1 -1 -2 -2 -2 -2 -3 -3 -3 -4 -4 -5 -6 -6 -7 -8 -8 -9 -9 -10 -10 -10
2 2 3 4 4 4 5 4 3 3 3 3 2 2 2 2 2 1 1 0 -0 -0 -1 -1 -2 -2 -2 -3 -3 -3 -4 -4 -5 -6 -6 -7 -8 -8 -9 -9 -10 -10 -10 -10
1 2 3 3 4 4 4 3 3 3 3 3 3 3 3 2 1 1 1 -0 -1 -1 -1 -2 -2 -2 -3 -3 -3 -4 -4 -5 -5 -6 -7 -8 -8 -9 -9 -10 -10 -10 -10 -10
1 1 2 2 2 2 2 2 2 2 2 2 2 2 2 2 1 1 0 0 -0 -1 -2 -2 -2 -3 -3 -3 -4 -4 -5 -5 -6 -7 -7 -8 -9 -9 -9 -10 -10 -10 -10 -10
1 1 1 1 1 1 1 1 1 1 2 2 2 2 2 2 2 1 0 -0 -1 -1 -2 -2 -3 -3 -3 -4 -4 -5 -5 -6 -7 -7 -8 -8 -9 -9 -10 -10 -10 -10 -10 -10
1 1 1 0 0 0 0 0 0 0 1 1 1 1 1 1 1 0 0 -0 -1 -2 -2 -3 -3 -3 -4 -4 -5 -5 -6 -6 -7 -8 -8 -9 -9 -10 -10 -10 -10 -10 -10 -10
0 0 0 -0 -1 -1 -1 -1 -1 -1 -0 -0 0 0 0 0 1 0 -0 -1 -1 -2 -2 -3 -3 -4 -4 -5 -5 -6 -6 -7 -7 -8 -9 -9 -9 -10 -10 -10 -10 -10 -10 -10
-1 -1 -1 -1 -2 -2 -2 -2 -1 -1 -1 -1 -1 -0 -0 -0 -1 -1 -1 -1 -2 -2 -3 -3 -4 -4 -4 -5 -5 -6 -7 -7 -8 -8 -9 -9 -9 -10 -10 -10 -10 -10 -9 -9
-1 -2 -2 -2 -2 -2 -3 -3 -2 -2 -2 -2 -1 -1 -1 -1 -1 -2 -2 -2 -2 -3 -3 -4 -4 -4 -5 -5 -6 -6 -7 -7 -8 -8 -9 -9 -9 -9 -9 -9 -9 -9 -9 -9

GEFSNGP_850_meantemp_042.txt.gz
Temperature
5 5 5 5 5 4 4 3 3 4 4 6 7 7 8 8 6 5 4 3 3 3 4 4 5 5 5 5 6 6 6 6 7 6 6 6 6 6 6 6 6 6 6 5
5 5 5 4 5 5 4 5 5 5 6 7 8 8 8 7 5 4 3 2 2 2 3 3 4 4 4 4 4 4 5 5 5 5 5 5 5 5 5 4 4 4 3 3
4 5 5 4 5 5 5 5 5 6 7 7 7 7 7 6 4 3 2 1 1 2 2 2 3 3 3 3 3 3 3 3 3 3 3 3 3 2 2 2 1 1 1 1
5 5 5 6 8 6 6 6 6 7 7 7 7 8 7 6 4 3 2 1 1 1 1 1 1 2 2 2 2 2 2 2 1 1 1 1 1 0 0 0 -0 -0 -0 -0
5 5 5 7 8 7 6 7 8 7 7 8 8 6 6 5 4 2 1 1 1 0 0 0 1 1 1 1 1 1 1 1 0 0 0 0 -0 -0 -0 -0 -0 -0 -0 -0
5 5 5 8 9 9 8 8 9 8 7 7 6 6 5 5 4 2 1 1 0 -0 -0 0 0 -0 0 0 0 0 -0 -0 -0 -0 -0 -0 -0 -0 -0 -0 -0 -0 -0 -1
6 5 5 7 8 8 8 9 9 9 8 7 6 6 6 5 4 3 2 1 0 0 0 -0 -0 -0 0 0 -0 -0 -0 -0 -0 -0 -0 -0 -0 -0 -0 -0 -0 -1 -1 -1
6 5 5 8 7 8 9 9 9 8 8 7 7 6 5 5 4 3 2 2 1 1 1 0 0 0 0 0 -0 -0 -0 -0 -0 -0 -0 -1 -1 -1 -1 -1 -1 -1 -2 -2
6 6 8 8 9 9 9 9 8 8 8 7 6 6 5 4 4 3 3 2 2 1 1 1 1 1 1 0 0 0 0 -0 -0 -0 -0 -1 -1 -1 -1 -2 -2 -2 -3 -3
5 5 7 8 9 9 9 9 8 8 7 7 6 6 5 4 4 3 3 3 2 2 2 1 1 1 1 1 0 0 0 -0 -0 -0 -1 -1 -1 -2 -2 -2 -3 -3 -4 -4
5 6 7 9 9 9 9 9 8 8 7 7 6 6 5 5 4 3 3 3 3 2 2 2 1 1 1 0 0 0 0 -0 -1 -1 -1 -2 -2 -2 -3 -3 -4 -4 -5 -5
5 6 6 7 8 8 8 8 8 7 7 7 6 5 5 4 4 4 3 3 3 2 2 2 1 1 1 0 -0 -0 -0 -1 -1 -1 -2 -2 -3 -3 -3 -4 -5 -5 -6 -6
6 6 7 7 8 8 7 8 7 7 7 6 6 5 4 4 4 3 3 3 3 2 2 2 1 1 1 -0 -1 -1 -1 -1 -1 -2 -2 -3 -3 -3 -4 -4 -5 -6 -6 -7
5 5 6 7 7 7 7 7 7 7 6 5 5 4 4 4 3 3 3 3 3 2 2 2 1 1 0 -0 -1 -1 -1 -1 -2 -2 -2 -3 -3 -4 -4 -5 -5 -6 -6 -7
4 4 4 5 6 6 6 6 6 6 5 5 4 4 3 3 3 3 3 3 2 2 2 1 1 1 0 -0 -1 -1 -1 -2 -2 -2 -3 -3 -4 -4 -5 -5 -6 -7 -7 -8
4 4 4 4 4 4 5 5 5 5 5 4 4 3 3 3 2 2 3 3 3 2 2 1 1 0 0 -0 -1 -1 -2 -2 -2 -3 -3 -4 -4 -5 -5 -6 -7 -7 -8 -8
1 2 2 2 3 3 4 4 4 4 4 4 3 3 2 2 2 2 2 2 2 2 1 1 0 0 -0 -1 -1 -1 -2 -2 -3 -3 -4 -4 -5 -6 -6 -7 -8 -8 -9 -9
0 0 1 1 1 2 3 4 4 4 4 4 3 2 2 2 2 2 2 2 2 1 1 0 -0 -0 -1 -1 -1 -2 -2 -3 -3 -4 -4 -5 -6 -6 -7 -7 -8 -9 -9 -9
0 1 1 1 1 2 3 3 4 4 4 3 3 3 2 2 2 2 2 2 2 1 1 0 -0 -1 -1 -1 -2 -2 -3 -3 -4 -4 -5 -5 -6 -7 -7 -8 -9 -9 -9 -9
1 1 1 1 2 2 3 3 3 4 4 3 3 2 2 2 2 2 2 2 2 1 1 0 -0 -1 -1 -2 -2 -3 -3 -4 -4 -5 -5 -6 -7 -7 -8 -8 -9 -9 -9 -10
1 1 1 1 2 2 2 3 3 3 3 2 2 2 2 2 1 1 2 2 2 1 -0 -1 -1 -1 -2 -2 -3 -3 -4 -4 -5 -5 -6 -6 -7 -8 -8 -9 -9 -9 -10 -10
1 1 1 1 1 2 2 2 2 2 1 1 1 1 1 1 1 1 2 2 1 0 -0 -1 -1 -2 -2 -2 -3 -3 -4 -4 -5 -5 -6 -7 -7 -8 -8 -9 -9 -10 -10 -10
0 0 1 1 1 1 1 1 1 1 0 0 0 1 1 1 1 1 2 1 0 -0 -0 -1 -2 -2 -2 -3 -3 -4 -4 -5 -5 -6 -6 -7 -8 -8 -9 -9 -9 -10 -10 -10
0 0 -0 -0 -0 0 0 -0 -0 -0 -0 -0 -0 -0 0 0 0 1 1 1 0 -0 -1 -1 -2 -2 -3 -3 -4 -4 -4 -5 -5 -6 -7 -7 -8 -8 -9 -9 -9 -9 -9 -9
-1 -1 -1 -1 -1 -1 -1 -1 -1 -1 -1 -1 -1 -1 -1 -0 0 0 0 -0 -0 -1 -1 -2 -2 -3 -3 -3 -4 -4 -5 -5 -6 -6 -7 -7 -8 -8 -8 -9 -9 -9 -9 -9
-1 -1 -2 -2 -2 -2 -2 -2 -2 -2 -2 -2 -1 -1 -1 -1 -1 -1 -1 -1 -1 -1 -2 -2 -3 -3 -3 -4 -4 -4 -5 -5 -6 -6 -7 -7 -8 -8 -8 -8 -9 -9 -9 -9
-2 -2 -2 -2 -2 -2 -2 -2 -2 -3 -3 -2 -2 -2 -2 -2 -2 -1 -2 -2 -2 -2 -2 -3 -3 -3 -4 -4 -4 -5 -5 -5 -6 -6 -7 -7 -7 -8 -8 -8 -8 -8 -8 -8

GEFSNGP_850_meantemp_048.txt.gz
Temperature
7 7 7 7 7 7 7 8 9 10 10 11 12 12 11 10 8 7 5 4 3 3 3 3 3 3 4 4 4 4 4 5 5 4 4 4 5 5 5 5 5 5 5 5
7 7 7 7 7 7 7 8 8 9 9 11 11 10 10 9 8 6 4 3 2 2 2 2 3 3 3 3 3 3 3 4 3 3 3 3 3 3 3 3 3 3 2 2
8 7 7 7 8 8 8 8 9 9 10 11 11 11 10 8 7 5 4 3 2 2 2 2 2 2 2 2 2 2 2 2 2 2 2 2 2 2 1 1 1 1 0 0
7 7 6 10 9 9 9 9 9 9 10 11 10 9 8 6 6 4 3 3 2 2 1 1 1 1 1 1 1 1 1 1 1 1 1 1 1 0 0 -0 -0 -0 -0 -1
7 8 8 10 9 8 8 9 10 9 10 10 9 8 7 5 5 4 4 3 2 2 1 1 1 1 1 1 1 1 1 1 0 0 0 0 0 -0 -0 -0 -1 -1 -1 -1
7 7 8 10 9 8 9 10 10 9 10 9 8 10 10 6 5 4 4 3 2 2 2 1 1 1 1 1 1 1 0 0 0 0 0 0 -0 -0 -1 -1 -1 -1 -1 -1
7 7 9 10 9 9 9 10 9 9 9 8 9 9 7 6 5 4 4 3 3 2 2 2 1 1 1 1 0 0 0 0 0 0 0 -0 -0 -0 -1 -1 -1 -1 -1 -2
7 7 8 9 8 9 10 9 8 8 8 7 7 6 6 5 4 4 4 3 3 3 2 2 1 1 1 1 0 0 0 0 0 -0 -0 -0 -1 -1 -1 -1 -1 -2 -2 -3
9 9 9 8 9 9 8 8 8 8 8 7 7 6 6 5 4 4 4 3 3 3 2 2 1 1 1 1 0 0 0 0 -0 -0 -0 -1 -1 -1 -1 -2 -2 -3 -3 -4
8 9 9 8 8 8 8 8 8 8 8 7 7 6 6 5 4 4 4 4 3 3 2 2 2 1 1 1 0 0 0 -0 -0 -0 -1 -1 -1 -1 -2 -2 -3 -3 -4 -4
8 9 8 8 8 8 8 8 8 8 8 7 7 6 6 5 5 4 4 4 3 3 3 2 2 1 1 1 0 0 -0 -0 -0 -1 -1 -1 -2 -2 -2 -3 -3 -4 -5 -5
9 9 9 8 7 7 7 7 7 7 7 7 6 6 6 5 5 4 4 4 3 3 3 2 2 1 1 1 0 -0 -0 -0 -1 -1 -1 -2 -2 -3 -3 -3 -4 -5 -5 -6
7 6 6 6 6 6 6 7 7 7 7 6 6 6 6 5 5 4 4 4 4 3 3 2 2 1 1 1 0 -0 -0 -1 -1 -1 -2 -2 -3 -3 -4 -4 -5 -5 -6 -6
5 6 5 5 6 6 6 6 6 6 6 6 6 5 5 5 4 4 4 4 3 3 2 2 2 1 1 0 0 -0 -1 -1 -1 -2 -2 -3 -3 -4 -4 -5 -5 -6 -6 -7
5 5 5 5 5 5 5 5 5 5 5 5 5 5 5 4 4 4 3 3 3 3 2 2 2 1 1 0 0 -0 -1 -1 -1 -2 -2 -3 -3 -4 -4 -5 -6 -6 -7 -7
4 4 4 4 4 3 4 4 4 4 4 5 5 4 4 4 3 3 3 3 3 3 2 2 2 1 1 0 -0 -1 -1 -1 -2 -2 -2 -3 -3 -4 -5 -5 -6 -6 -7 -7
3 3 3 3 2 2 2 3 3 3 4 4 4 4 3 3 3 2 2 2 2 2 2 2 1 1 0 -0 -0 -1 -1 -1 -2 -2 -3 -3 -4 -4 -5 -6 -6 -7 -7 -8
2 2 2 1 1 2 2 2 2 3 3 3 3 3 3 3 3 2 2 2 1 1 1 1 1 0 0 -0 -1 -1 -1 -2 -2 -2 -3 -3 -4 -4 -5 -6 -6 -7 -8 -8
1 1 1 1 1 1 1 2 2 2 3 3 3 3 3 2 2 2 1 1 1 1 1 0 0 -0 -0 -1 -1 -1 -2 -2 -2 -3 -3 -4 -4 -5 -5 -6 -7 -7 -8 -8
1 1 1 1 1 1 1 1 2 2 2 2 3 2 2 2 1 1 0 0 0 1 0 -0 -0 -0 -1 -1 -1 -2 -2 -2 -3 -3 -3 -4 -4 -5 -6 -6 -7 -8 -8 -8
0 1 1 1 1 1 1 1 1 2 2 2 2 2 2 1 1 0 -0 -0 -0 -0 -1 -1 -1 -1 -1 -1 -2 -2 -2 -2 -3 -3 -3 -4 -5 -5 -6 -7 -7 -8 -8 -8
0 0 0 0 0 0 0 1 1 1 1 1 1 1 1 0 0 -0 -1 -1 -1 -1 -1 -1 -1 -1 -1 -2 -2 -2 -2 -3 -3 -3 -4 -4 -5 -5 -6 -7 -7 -8 -8 -8
-0 -0 -0 -0 -0 -0 -0 -0 -0 -0 0 -0 -0 -0 -0 -0 -1 -1 -1 -1 -1 -1 -1 -1 -1 -2 -2 -2 -2 -2 -3 -3 -3 -3 -4 -4 -5 -6 -6 -7 -7 -8 -8 -8
-0 -1 -1 -1 -1 -1 -1 -1 -1 -1 -1 -1 -1 -1 -1 -1 -1 -1 -1 -1 -1 -1 -1 -1 -2 -2 -2 -2 -2 -3 -3 -3 -3 -4 -4 -5 -5 -6 -6 -7 -7 -7 -8 -8
-1 -1 -1 -1 -1 -1 -1 -1 -1 -2 -2 -2 -2 -2 -2 -2 -2 -2 -1 -1 -2 -2 -2 -2 -2 -3 -3 -3 -3 -3 -3 -3 -4 -4 -4 -5 -5 -6 -6 -7 -7 -7 -8 -8
-1 -1 -2 -2 -2 -2 -2 -2 -2 -2 -2 -2 -2 -2 -2 -2 -2 -2 -2 -2 -2 -2 -2 -2 -3 -3 -3 -3 -3 -3 -4 -4 -4 -4 -5 -5 -6 -6 -6 -7 -7 -7 -7 -7
-2 -2 -2 -2 -2 -2 -2 -2 -2 -2 -2 -2 -2 -2 -2 -2 -2 -2 -2 -2 -2 -2 -3 -3 -3 -3 -3 -3 -4 -4 -4 -4 -4 -5 -5 -5 -6 -6 -6 -7 -7 -7 -7 -7

GEFSNGP_850_meantemp_054.txt.gz
Temperature
9 9 9 8 8 8 7 7 8 10 11 12 11 12 12 12 11 10 9 7 6 5 4 4 3 3 3 3 4 4 4 4 4 4 4 4 4 4 4 4 4 4 4 4
8 9 9 8 8 8 8 8 9 9 10 12 13 12 12 11 11 10 9 7 6 5 4 3 3 3 3 3 3 3 3 3 3 3 3 3 3 2 2 2 2 2 2 2
8 9 8 7 8 8 8 9 9 8 9 12 11 12 11 11 10 10 8 7 5 4 3 3 3 2 2 2 2 2 2 2 2 2 2 2 2 2 2 1 1 1 1 1
8 7 6 9 11 10 9 9 10 10 11 11 11 11 11 10 9 9 8 6 5 4 3 3 2 2 2 2 2 2 2 2 2 2 2 1 1 1 1 1 1 1 0 0
7 7 8 10 10 10 9 9 10 10 11 11 11 10 9 9 9 8 7 6 5 4 3 3 2 2 1 1 1 1 1 1 1 1 1 1 1 1 0 0 0 0 -0 -0
7 7 7 10 10 11 10 9 11 10 10 11 10 8 8 8 8 7 6 5 5 4 3 3 2 2 1 1 1 1 1 1 1 1 1 1 1 0 0 -0 -0 -0 -1 -1
7 7 8 10 10 10 8 9 10 10 10 10 9 8 8 8 7 6 6 5 5 4 3 3 3 2 2 1 1 1 1 1 1 1 1 1 0 0 -0 -0 -1 -1 -1 -2
7 6 7 9 9 9 9 9 10 9 9 9 9 8 8 7 7 6 5 5 5 4 4 3 3 2 2 1 1 1 1 1 1 1 1 0 0 -0 -0 -1 -1 -2 -2 -2
8 8 9 10 10 10 10 9 9 9 9 8 8 8 7 7 6 6 5 5 5 4 4 3 3 2 2 2 1 1 1 1 1 0 0 0 0 -0 -1 -1 -2 -2 -2 -3
9 9 10 10 10 9 9 9 9 8 8 8 8 7 7 6 6 6 5 5 4 4 3 3 3 2 2 2 1 1 1 1 0 0 0 0 -0 -0 -1 -1 -2 -2 -2 -3
8 9 10 10 10 9 9 8 8 8 8 8 7 7 7 6 6 6 5 5 4 4 4 3 3 2 2 2 1 1 1 1 0 0 0 0 -0 -1 -1 -1 -2 -2 -3 -3
8 9 9 9 9 8 8 8 7 7 7 7 7 7 7 6 6 6 5 5 5 4 4 3 3 3 2 2 1 1 1 1 0 0 -0 -0 -0 -1 -1 -2 -2 -3 -3 -4
9 9 9 8 8 7 7 7 7 7 7 7 6 6 6 6 6 5 5 5 5 4 4 3 3 3 2 2 1 1 1 1 0 0 -0 -0 -1 -1 -1 -2 -2 -3 -3 -4
8 8 7 7 6 6 6 6 6 6 6 6 6 6 6 5 5 5 5 5 4 4 4 3 3 3 2 2 1 1 1 0 0 -0 -0 -1 -1 -1 -2 -2 -3 -3 -4 -4
6 6 6 6 6 5 5 5 5 5 5 5 5 5 5 5 5 5 4 4 4 3 3 3 3 3 2 2 1 1 1 0 0 -0 -0 -1 -1 -2 -2 -2 -3 -3 -4 -5
5 5 5 5 4 4 4 4 4 4 4 4 4 4 4 4 4 4 4 3 3 4 3 3 3 3 2 2 1 1 0 0 -0 -0 -1 -1 -1 -2 -2 -3 -3 -4 -4 -5
4 4 4 3 3 3 3 3 3 3 3 3 3 3 3 3 3 3 3 3 3 3 3 3 3 2 2 1 1 1 0 -0 -0 -1 -1 -1 -2 -2 -2 -3 -3 -4 -5 -5
4 3 3 3 3 2 2 2 2 2 2 2 2 3 3 3 3 3 3 3 2 2 2 2 2 2 1 1 1 0 -0 -0 -1 -1 -1 -2 -2 -2 -3 -3 -4 -4 -5 -5
2 2 2 2 2 2 2 2 2 2 2 2 2 2 2 2 2 2 2 2 2 2 2 2 1 1 1 0 0 -0 -0 -1 -1 -1 -1 -2 -2 -2 -3 -3 -4 -4 -5 -5
1 1 1 2 1 1 1 1 1 1 1 1 1 1 2 2 2 2 2 2 2 2 1 1 1 0 0 -0 -1 -1 -1 -1 -1 -1 -2 -2 -2 -3 -3 -3 -4 -4 -5 -5
1 1 1 1 1 1 1 1 1 1 1 1 1 1 1 1 1 1 1 1 1 1 0 0 -0 -0 -0 -1 -1 -1 -2 -2 -2 -2 -2 -2 -3 -3 -3 -4 -4 -4 -5 -5
0 0 0 0 0 0 0 0 0 0 -0 -0 -0 -0 0 0 0 0 -0 -0 -0 -0 -0 -0 -1 -1 -1 -1 -2 -2 -2 -2 -2 -2 -2 -3 -3 -3 -3 -4 -4 -4 -5 -5
0 0 0 0 0 -0 -0 -1 -1 -1 -1 -1 -1 -1 -1 -1 -1 -1 -1 -1 -1 -1 -1 -1 -1 -2 -2 -2 -2 -2 -2 -3 -3 -3 -3 -3 -3 -3 -4 -4 -4 -5 -5 -5
0 0 -0 -0 -0 -1 -1 -1 -1 -1 -1 -1 -1 -1 -2 -2 -1 -2 -2 -1 -1 -1 -1 -2 -2 -2 -2 -2 -2 -3 -3 -3 -3 -3 -4 -4 -4 -4 -4 -4 -4 -5 -5 -5
-0 -0 -0 -1 -1 -1 -1 -1 -2 -2 -2 -2 -2 -2 -2 -2 -2 -2 -2 -2 -2 -2 -2 -2 -2 -3 -3 -3 -3 -3 -3 -3 -4 -4 -4 -4 -4 -4 -4 -5 -5 -5 -5 -6
-0 -0 -1 -1 -1 -1 -2 -2 -2 -2 -2 -2 -2 -2 -2 -2 -2 -2 -2 -2 -2 -2 -2 -2 -3 -3 -3 -3 -3 -3 -4 -4 -4 -4 -4 -4 -5 -5 -5 -5 -5 -5 -6 -6
-1 -1 -1 -1 -1 -2 -2 -2 -2 -2 -2 -2 -2 -2 -2 -2 -3 -3 -3 -3 -3 -3 -3 -3 -3 -3 -4 -4 -4 -4 -4 -4 -4 -5 -5 -5 -5 -5 -5 -5 -5 -6 -6 -6

GEFSNGP_850_meantemp_060.txt.gz
Temperature
6 7 6 6 6 6 6 6 5 7 8 9 8 8 9 10 10 10 10 9 9 9 8 7 6 6 5 5 4 4 4 4 4 4 4 4 4 4 4 4 4 3 3 3
6 7 6 6 6 6 6 7 6 7 7 9 9 10 9 10 10 10 10 10 9 8 8 7 6 5 5 4 4 4 4 4 3 3 3 3 3 3 3 3 2 2 2 3
5 6 6 5 6 6 6 6 7 7 8 9 9 8 9 10 10 10 10 10 9 9 8 7 6 5 4 4 3 3 3 3 2 2 2 2 2 2 2 2 1 2 2 2
5 5 5 7 8 7 7 7 7 7 8 8 9 10 11 11 11 11 10 10 9 8 7 6 5 4 3 3 3 2 2 2 2 2 2 2 1 1 1 1 1 1 1 1
5 4 5 7 8 7 6 6 7 7 8 8 9 9 9 10 10 10 10 10 9 8 7 6 5 4 3 2 2 2 2 2 2 2 1 1 1 1 1 1 1 1 0 0
5 5 5 7 9 9 8 7 8 7 7 8 8 7 7 10 10 9 9 9 8 7 6 5 4 4 3 2 2 2 2 2 1 1 1 1 1 1 1 1 0 0 0 -0
5 5 5 7 8 9 7 7 8 8 8 8 8 8 10 9 9 9 8 7 7 6 6 5 4 3 3 2 2 2 2 1 1 1 1 1 1 1 0 0 0 -0 -0 -0
5 5 5 8 8 7 7 8 8 9 9 9 9 9 9 9 8 8 7 7 6 6 5 4 4 3 3 3 2 2 2 1 1 1 1 1 1 1 0 0 -0 -0 -0 -1
5 6 7 8 9 9 9 9 9 9 9 9 9 9 8 8 8 7 7 6 6 5 5 4 4 4 3 3 2 2 2 1 1 1 1 1 1 0 0 0 -0 -0 -1 -1
5 5 7 9 9 9 9 9 9 9 9 9 9 8 8 8 7 7 6 6 5 5 5 4 4 4 3 3 2 2 2 1 1 1 1 1 0 0 -0 -0 -0 -1 -1 -1
5 6 7 8 9 9 9 9 9 8 8 8 8 8 7 7 7 7 6 6 5 5 5 4 4 4 3 2 2 2 2 1 1 1 1 0 0 -0 -0 -0 -1 -1 -1 -1
5 6 6 8 9 9 8 8 8 8 8 7 7 7 7 7 7 6 6 6 5 5 5 4 4 4 3 3 2 2 2 1 1 1 1 0 0 -0 -0 -1 -1 -1 -1 -1
7 8 8 8 8 8 8 8 7 7 7 7 7 6 6 6 6 6 6 6 5 5 5 4 4 4 3 3 2 2 2 1 1 1 0 0 0 -0 -0 -1 -1 -1 -1 -2
7 7 6 6 7 7 7 7 7 6 6 6 6 6 6 6 6 6 5 5 5 4 4 4 4 3 3 3 2 2 2 1 1 1 0 0 -0 -0 -1 -1 -1 -1 -2 -2
6 6 6 6 6 6 6 6 6 6 5 5 5 5 5 5 5 5 5 4 4 4 4 4 3 3 3 2 2 2 1 1 1 0 0 -0 -0 -1 -1 -1 -1 -1 -2 -2
5 5 5 5 5 5 5 5 5 4 4 4 4 4 4 4 4 4 4 4 4 4 4 3 3 3 2 2 2 1 1 1 0 0 -0 -0 -1 -1 -1 -1 -1 -2 -2 -2
4 3 4 3 4 4 4 4 3 3 3 3 3 3 3 3 3 4 4 3 3 3 3 3 3 2 2 2 1 1 1 0 0 -0 -0 -1 -1 -1 -1 -1 -2 -2 -2 -3
3 3 3 3 3 3 3 2 2 2 2 2 2 2 2 2 3 3 3 3 3 3 3 2 2 2 2 1 1 1 0 -0 -0 -0 -1 -1 -1 -1 -2 -2 -2 -2 -2 -3
2 2 2 2 2 2 2 2 2 2 2 2 2 2 2 2 2 2 2 2 2 2 2 2 2 1 1 1 0 0 -0 -0 -1 -1 -1 -1 -2 -2 -2 -2 -2 -3 -3 -3
1 1 1 1 1 1 1 1 1 1 1 1 1 1 1 1 1 1 1 1 1 1 1 1 1 1 1 0 -0 -0 -1 -1 -1 -1 -2 -2 -2 -2 -2 -3 -3 -3 -3 -3
0 0 0 0 0 0 0 0 0 0 0 0 0 0 0 0 0 0 0 1 1 0 0 0 0 0 0 -0 -1 -1 -1 -2 -2 -2 -2 -3 -3 -3 -3 -3 -3 -3 -4 -4
-0 -0 -0 -0 -0 -0 -0 -0 -0 -1 -1 -1 -1 -1 -1 -0 -0 -0 -0 -0 -0 -0 -0 -0 -0 -0 -1 -1 -1 -1 -2 -2 -2 -3 -3 -3 -3 -3 -3 -3 -4 -4 -4 -4
-1 -1 -1 -0 -0 -0 -0 -1 -1 -1 -1 -1 -1 -1 -1 -1 -1 -1 -1 -1 -1 -1 -1 -1 -1 -1 -1 -2 -2 -2 -2 -3 -3 -3 -3 -3 -4 -4 -4 -4 -4 -4 -4 -4
-1 -1 -0 -1 -1 -1 -1 -1 -1 -1 -2 -2 -2 -2 -2 -2 -2 -2 -2 -2 -2 -2 -2 -2 -2 -2 -2 -2 -2 -3 -3 -3 -3 -4 -4 -4 -4 -4 -4 -4 -4 -4 -5 -5
-1 -1 -1 -1 -1 -1 -1 -1 -2 -2 -2 -2 -2 -2 -2 -2 -2 -2 -2 -2 -2 -2 -2 -2 -2 -2 -3 -3 -3 -3 -3 -4 -4 -4 -4 -4 -4 -4 -4 -5 -5 -5 -5 -5
-1 -1 -1 -1 -1 -1 -1 -2 -2 -2 -2 -2 -2 -3 -3 -3 -3 -3 -2 -2 -3 -3 -3 -3 -3 -3 -3 -3 -3 -4 -4 -4 -4 -4 -4 -4 -5 -5 -5 -5 -5 -5 -5 -5
-1 -1 -1 -1 -1 -1 -2 -2 -2 -2 -2 -3 -3 -3 -3 -3 -3 -3 -3 -3 -3 -3 -3 -3 -3 -3 -3 -3 -4 -4 -4 -4 -5 -5 -5 -5 -5 -5 -5 -5 -5 -5 -6 -6

GEFSNGP_850_meantemp_066.txt.gz
Temperature
5 6 5 5 6 5 6 6 6 6 6 7 8 8 9 9 9 9 10 10 10 10 10 9 9 8 7 7 6 5 5 5 4 4 4 4 3 3 3 3 3 3 3 3
5 6 5 5 5 5 5 6 6 6 6 7 8 9 9 9 9 9 10 10 10 10 10 9 9 8 7 6 5 5 4 4 4 3 3 3 3 3 3 3 3 3 3 3
5 5 6 5 5 5 5 5 5 6 7 8 7 7 9 10 10 10 11 11 11 11 10 10 9 8 7 6 5 4 4 3 3 2 2 2 2 2 2 2 2 2 2 2
4 5 5 6 7 6 5 6 5 6 6 7 7 9 10 10 10 11 11 11 11 11 10 10 8 7 6 5 4 4 3 3 2 2 2 2 2 1 1 1 1 1 2 2
4 4 4 5 6 6 5 5 6 6 6 7 7 7 8 10 10 10 11 11 11 10 10 9 8 7 6 5 4 3 3 3 2 2 2 1 1 1 1 1 1 1 1 1
4 5 5 6 7 7 6 6 7 6 5 6 6 5 7 10 10 10 10 10 10 10 9 8 8 7 6 5 4 3 3 2 2 2 1 1 1 1 1 1 1 1 1 1
4 5 4 5 6 7 6 7 8 7 7 6 5 6 8 9 9 9 9 9 9 9 8 8 7 6 5 4 4 3 2 2 2 1 1 1 1 1 1 1 1 1 1 1
4 5 5 6 6 6 6 8 8 8 8 7 7 8 8 8 9 9 9 8 8 8 7 7 6 5 5 4 3 2 2 2 1 1 1 1 1 1 1 1 1 1 1 0
4 5 6 7 7 8 8 8 8 8 8 8 8 8 8 8 8 8 8 7 7 7 6 6 5 5 4 4 3 2 2 1 1 1 1 1 1 1 1 1 1 1 0 0
3 4 5 7 7 8 8 8 8 8 8 8 8 8 8 8 7 7 7 7 7 6 6 6 5 5 4 3 3 2 2 2 1 1 1 1 1 1 1 1 1 0 0 0
3 4 5 7 8 8 8 8 8 8 8 8 7 7 7 7 7 7 7 6 6 6 6 5 5 4 4 3 3 2 2 2 1 1 1 1 1 1 1 0 0 0 0 -0
4 5 4 6 7 7 7 7 7 7 7 7 7 7 7 7 6 6 6 6 6 6 5 5 4 4 4 3 3 2 2 2 2 1 1 1 1 1 0 0 0 0 -0 -0
4 4 5 5 6 6 6 6 6 6 6 6 6 6 6 6 6 6 6 6 6 5 5 5 4 4 3 3 3 2 2 2 2 1 1 1 1 0 0 0 -0 -0 -0 -0
4 4 4 4 5 5 5 5 5 5 6 5 5 6 5 6 5 5 5 5 5 5 5 4 4 4 3 3 3 2 2 2 1 1 1 0 0 0 -0 -0 -0 -0 -1 -1
3 3 3 3 4 4 4 4 4 5 5 5 5 5 5 5 5 4 4 4 4 4 4 4 4 4 3 3 2 2 2 2 1 1 1 0 -0 -0 -0 -0 -0 -1 -1 -1
2 2 2 3 3 3 3 3 3 4 3 3 3 4 4 4 4 4 4 4 4 4 4 4 4 3 3 3 2 2 2 2 1 1 0 0 -0 -0 -1 -1 -1 -1 -1 -1
1 1 2 2 2 2 2 2 3 2 3 3 3 3 3 3 3 3 3 3 3 3 3 3 3 3 2 2 2 2 2 1 1 1 0 0 -0 -0 -1 -1 -1 -1 -1 -2
0 1 1 1 1 1 2 2 2 2 2 2 2 2 2 2 2 2 2 2 2 2 2 2 2 2 2 2 2 1 1 1 1 1 0 0 -0 -0 -1 -1 -1 -2 -2 -2
-0 0 0 1 1 1 1 1 1 1 1 1 1 1 1 1 1 1 1 1 1 1 1 1 1 1 1 1 1 1 1 0 0 0 -0 -0 -1 -1 -1 -1 -2 -2 -2 -2
-1 -1 -0 -0 0 0 0 0 0 0 0 0 0 0 0 0 0 0 0 0 0 0 0 1 1 1 1 1 1 0 0 -0 -0 -0 -1 -1 -1 -1 -1 -2 -2 -2 -2 -3
-1 -1 -1 -1 -1 -1 -0 -0 0 0 -0 -0 -0 -0 -0 -1 -1 -1 -0 -0 -0 -1 -0 -0 -0 -0 -0 -0 -0 -0 -0 -1 -1 -1 -1 -1 -2 -2 -2 -2 -3 -3 -3 -3
-1 -1 -1 -1 -1 -1 -1 -1 -1 -0 -1 -1 -1 -1 -1 -1 -1 -1 -1 -1 -1 -1 -1 -1 -1 -1 -1 -1 -1 -1 -1 -1 -1 -2 -2 -2 -2 -2 -3 -3 -3 -3 -4 -4
-2 -2 -2 -2 -1 -1 -1 -1 -1 -1 -1 -1 -1 -1 -2 -2 -2 -2 -2 -2 -2 -2 -2 -1 -1 -2 -2 -2 -2 -2 -2 -2 -2 -2 -3 -3 -3 -3 -3 -3 -3 -4 -4 -4
-1 -2 -2 -2 -1 -1 -1 -1 -1 -1 -1 -1 -2 -2 -2 -2 -2 -2 -2 -2 -2 -2 -2 -2 -2 -2 -2 -2 -3 -3 -3 -3 -3 -3 -3 -3 -4 -4 -4 -4 -4 -4 -4 -4
-1 -1 -1 -1 -1 -1 -1 -1 -1 -1 -2 -2 -2 -2 -2 -2 -2 -2 -3 -3 -3 -3 -3 -3 -3 -3 -3 -3 -3 -3 -4 -4 -4 -4 -4 -4 -4 -4 -4 -4 -4 -5 -5 -5
-1 -1 -1 -1 -1 -1 -1 -1 -1 -1 -2 -2 -2 -2 -2 -2 -3 -3 -3 -3 -3 -3 -3 -3 -3 -3 -3 -3 -4 -4 -4 -4 -4 -4 -5 -5 -5 -5 -5 -5 -5 -5 -5 -5
-1 -1 -1 -1 -1 -1 -1 -2 -2 -2 -2 -2 -2 -2 -2 -3 -3 -3 -3 -3 -3 -3 -4 -4 -4 -4 -4 -4 -4 -4 -4 -4 -5 -5 -5 -5 -5 -5 -5 -5 -5 -5 -5 -5

GEFSNGP_850_meantemp_072.txt.gz
Temperature
8 8 8 8 9 9 8 9 9 11 11 12 13 13 13 12 11 10 9 9 9 9 9 10 10 9 9 9 8 8 7 7 6 6 5 5 4 4 4 4 3 4 4 4
7 8 8 8 8 9 9 9 10 10 11 12 12 11 11 11 10 10 9 9 10 10 10 10 10 10 9 9 8 7 7 6 6 5 5 4 4 3 3 3 3 3 3 3
8 7 7 8 9 9 9 9 9 10 11 12 11 11 10 10 10 10 9 9 10 10 10 10 10 10 9 9 8 7 6 6 5 4 4 3 3 2 2 2 2 2 2 2
8 7 7 10 9 9 9 9 9 9 10 10 10 9 9 9 9 9 9 9 9 10 10 10 10 10 9 8 8 7 6 5 5 4 3 3 2 2 2 2 1 1 1 1
7 8 8 9 8 8 8 9 9 9 9 9 8 7 9 8 8 8 9 9 9 10 10 10 10 10 9 8 7 7 6 5 4 4 3 2 2 2 1 1 1 1 1 1
7 7 7 9 9 7 8 9 9 8 9 8 7 9 10 8 8 8 9 9 9 10 10 10 10 9 9 8 7 7 6 5 4 3 3 2 2 1 1 1 1 1 1 1
6 7 8 9 7 7 8 9 8 8 8 7 8 8 8 7 8 8 8 9 9 9 9 9 9 9 8 8 7 6 5 4 3 3 2 2 1 1 1 1 0 0 0 0
7 6 7 7 7 8 8 7 7 7 7 7 7 7 7 7 7 8 8 8 8 8 8 8 8 8 8 7 6 5 4 3 3 2 2 1 1 1 0 0 0 0 -0 0
7 8 7 6 6 6 6 6 6 6 6 6 7 7 7 7 7 7 7 7 7 7 7 7 7 7 6 6 5 4 4 3 2 2 1 1 1 1 0 0 0 -0 -0 0
5 6 6 5 5 5 5 5 6 6 6 6 6 6 7 7 7 7 7 7 7 7 7 6 6 6 5 5 4 4 3 3 2 1 1 1 1 0 0 1 0 0 0 0
5 6 5 5 4 4 5 5 5 5 5 6 6 6 6 6 6 6 6 6 6 6 6 6 5 5 5 4 4 3 3 2 2 1 1 1 1 1 1 1 0 0 0 0
4 4 4 4 3 3 4 4 4 5 5 5 5 5 6 6 6 6 6 6 6 5 5 5 5 5 4 4 3 3 2 2 2 1 1 0 0 0 0 0 0 -0 -0 -0
2 2 2 2 2 3 3 3 4 4 4 4 5 5 5 5 5 5 5 5 5 5 5 5 4 4 4 3 3 3 2 2 2 1 1 0 0 0 0 0 -0 -0 -0 -0
1 1 1 2 2 2 2 2 3 3 3 3 4 4 4 4 4 4 4 4 4 4 4 4 4 4 3 3 3 2 2 2 1 1 1 0 0 0 -0 -0 -0 -0 0 -0
1 0 0 1 1 1 2 2 2 2 2 3 3 3 3 4 4 4 4 3 3 3 3 3 3 3 3 3 2 2 2 2 1 1 1 0 0 0 -0 -0 -0 -0 -0 -0
-0 0 0 0 0 1 1 1 1 1 2 2 2 2 2 3 3 3 3 3 3 3 3 3 3 3 2 2 2 2 2 1 1 1 1 0 0 0 -0 -0 -1 -1 -0 -0
-1 -1 -0 -0 -0 -0 0 0 0 1 1 1 1 1 2 2 2 2 2 2 2 2 2 2 2 2 2 2 2 1 1 1 1 1 0 0 0 -0 -0 -0 -0 -0 -0 -1
-1 -1 -1 -1 -1 -1 -0 -0 -0 0 0 0 0 1 1 1 1 1 1 1 1 1 1 1 1 1 1 1 1 1 1 1 0 0 0 0 -0 -0 -0 -1 -1 -1 -1 -1
-1 -1 -1 -1 -1 -1 -1 -1 -1 -1 -0 -0 -0 -0 -0 -0 0 0 0 0 0 0 0 0 0 0 0 0 0 0 0 0 0 0 -0 -0 -0 -1 -1 -1 -1 -1 -1 -1
-1 -1 -1 -2 -2 -1 -1 -1 -1 -1 -1 -1 -1 -1 -1 -1 -1 -1 -0 -1 -1 -1 -1 -1 -0 -0 -0 -0 -0 -0 -0 -0 -0 -0 -0 -1 -1 -1 -1 -1 -1 -2 -2 -2
-1 -1 -2 -2 -2 -2 -2 -2 -2 -1 -1 -1 -1 -1 -1 -1 -1 -1 -1 -1 -1 -1 -1 -1 -1 -1 -1 -1 -1 -1 -1 -1 -1 -1 -1 -1 -1 -2 -2 -2 -2 -2 -2 -2
-1 -2 -2 -2 -2 -2 -2 -2 -2 -2 -2 -2 -2 -2 -2 -1 -1 -1 -2 -2 -2 -2 -2 -2 -2 -2 -2 -1 -2 -2 -2 -2 -2 -2 -2 -2 -2 -2 -2 -3 -3 -3 -3 -3
-1 -2 -2 -2 -2 -2 -2 -2 -2 -2 -2 -2 -2 -2 -2 -2 -2 -2 -2 -2 -2 -2 -2 -2 -2 -2 -2 -2 -2 -2 -2 -3 -3 -3 -3 -3 -3 -3 -3 -3 -3 -4 -4 -4
-1 -1 -2 -2 -2 -2 -2 -2 -2 -2 -2 -2 -2 -2 -2 -2 -2 -2 -2 -2 -2 -2 -2 -3 -3 -3 -3 -3 -3 -3 -3 -3 -3 -3 -3 -4 -4 -4 -4 -4 -4 -4 -4 -4
-1 -1 -2 -2 -2 -2 -2 -2 -2 -2 -2 -2 -2 -2 -2 -2 -2 -2 -2 -2 -2 -3 -3 -3 -3 -3 -3 -3 -3 -3 -3 -4 -4 -4 -4 -4 -4 -4 -4 -5 -5 -5 -5 -5
-1 -1 -2 -2 -2 -2 -2 -2 -2 -2 -2 -2 -2 -2 -2 -2 -2 -2 -3 -3 -3 -3 -3 -3 -3 -3 -3 -4 -4 -4 -4 -4 -4 -4 -4 -4 -5 -5 -5 -5 -5 -5 -5 -5
-1 -2 -2 -2 -2 -2 -2 -2 -2 -2 -2 -2 -2 -2 -2 -3 -3 -3 -3 -3 -3 -3 -3 -3 -4 -4 -4 -4 -4 -4 -4 -4 -4 -5 -5 -5 -5 -5 -5 -5 -5 -6 -6 -6

GEFSNGP_850_meantemp_078.txt.gz
Temperature
9 10 9 9 9 10 9 8 8 10 11 12 12 12 13 13 13 13 12 12 11 10 10 9 9 8 8 8 9 9 9 9 9 9 9 8 8 7 7 6 6 5 5 4
8 9 9 9 9 10 10 10 10 10 10 12 13 13 13 12 12 12 12 11 11 10 10 9 9 9 8 9 9 9 9 9 9 8 8 8 7 6 6 5 5 4 4 3
7 9 8 7 9 9 10 10 10 9 10 11 11 11 11 11 11 11 11 11 11 10 10 9 9 9 9 9 9 9 9 9 8 8 8 7 7 6 5 4 4 3 3 3
7 7 6 9 10 10 10 10 10 10 10 10 10 11 10 10 10 9 9 10 10 10 10 9 9 9 9 9 9 9 9 8 8 8 7 7 6 5 4 4 3 3 2 2
6 6 7 9 9 10 9 9 10 10 10 10 10 10 9 9 8 8 8 9 9 9 9 9 9 9 9 9 9 9 9 8 8 7 7 6 5 5 4 3 3 2 2 2
6 6 7 8 8 9 9 8 8 9 9 9 9 7 7 8 8 8 8 8 8 8 8 9 8 8 8 8 8 9 8 8 7 7 6 6 5 4 3 3 2 2 1 1
5 6 7 7 8 9 7 6 7 8 7 7 7 7 7 7 7 7 7 7 8 8 8 8 8 8 8 8 8 8 7 7 7 6 6 5 4 3 3 2 2 1 1 1
6 5 6 7 7 6 6 6 6 6 6 6 6 7 7 7 7 7 7 7 7 7 7 7 7 7 7 7 7 7 6 6 6 5 5 4 3 3 2 2 1 1 1 1
6 6 6 6 6 5 5 5 5 5 5 5 6 6 6 6 6 6 6 6 6 6 6 6 6 6 6 6 6 6 5 5 5 4 4 3 3 2 2 1 1 1 1 1
5 5 6 6 5 5 4 4 4 4 4 5 5 5 5 5 5 6 6 6 6 6 6 6 6 6 6 6 5 5 5 4 4 3 3 3 2 2 1 1 1 1 1 1
5 5 5 5 4 4 3 3 3 4 4 4 4 4 4 4 5 5 5 5 5 5 5 5 5 5 5 5 5 4 4 4 3 3 2 2 2 2 1 1 1 1 1 1
3 3 3 3 3 3 2 2 2 3 3 3 3 3 4 4 4 4 4 5 5 5 5 5 5 5 5 4 4 4 3 3 3 2 2 2 2 1 1 1 1 0 0 0
2 2 2 2 2 2 2 1 2 2 2 2 2 3 3 3 3 3 4 4 4 4 4 4 4 4 4 4 3 3 3 3 2 2 2 2 1 1 1 1 0 0 0 0
2 2 1 1 1 1 1 1 1 1 1 2 2 2 2 2 2 3 3 3 3 3 3 3 3 3 3 3 3 3 2 2 2 2 1 1 1 1 1 0 0 0 0 0
1 1 1 0 0 0 0 0 0 0 1 1 1 1 1 1 2 2 2 2 2 3 3 3 3 2 2 2 2 2 2 2 2 1 1 1 1 0 0 0 0 0 0 0
1 0 -0 -0 -0 -0 -0 -1 -0 -0 -0 0 0 0 1 1 1 1 1 1 2 2 2 2 2 2 2 2 2 2 2 1 1 1 1 0 0 0 0 -0 0 0 0 0
-0 -0 -1 -1 -1 -1 -1 -1 -1 -1 -1 -0 -0 -0 -0 0 0 0 1 1 1 1 1 1 1 1 1 1 1 1 1 1 0 0 0 0 -0 -0 -0 -0 -0 -0 -0 -0
-0 -1 -1 -1 -2 -2 -2 -1 -1 -1 -1 -1 -1 -1 -1 -0 -0 -0 -0 -0 -0 0 0 0 0 0 0 0 0 0 0 0 -0 -0 -0 -0 -0 -0 -1 -1 -1 -1 -1 -1
-0 -1 -1 -1 -2 -2 -2 -2 -2 -2 -2 -1 -1 -1 -1 -1 -1 -1 -1 -1 -1 -1 -1 -1 -1 -1 -1 -1 -1 -1 -1 -1 -1 -1 -1 -1 -1 -1 -1 -1 -1 -1 -1 -1
-0 -0 -1 -1 -1 -2 -2 -2 -2 -2 -2 -2 -2 -2 -2 -2 -1 -1 -1 -1 -1 -1 -1 -1 -1 -1 -1 -1 -1 -1 -1 -1 -1 -1 -1 -2 -2 -2 -2 -1 -1 -1 -2 -2
0 -0 -1 -1 -1 -1 -2 -2 -2 -2 -2 -2 -2 -2 -2 -2 -2 -2 -2 -2 -2 -2 -2 -2 -2 -2 -2 -2 -2 -2 -2 -2 -2 -2 -2 -2 -2 -2 -2 -2 -2 -2 -2 -2
0 -0 -0 -1 -1 -1 -1 -2 -2 -2 -2 -2 -2 -2 -2 -2 -2 -2 -2 -2 -2 -2 -2 -2 -2 -2 -2 -2 -2 -2 -2 -3 -3 -3 -3 -3 -3 -3 -3 -3 -3 -3 -3 -3
-0 -0 -1 -1 -1 -1 -1 -2 -2 -2 -2 -2 -2 -2 -2 -2 -2 -2 -2 -2 -2 -2 -2 -2 -2 -2 -3 -3 -3 -3 -3 -3 -3 -3 -3 -3 -3 -3 -4 -4 -4 -4 -4 -4
-0 -0 -1 -1 -1 -1 -1 -1 -2 -2 -2 -2 -2 -2 -2 -2 -2 -2 -3 -3 -3 -3 -3 -3 -3 -3 -3 -3 -3 -3 -3 -4 -4 -4 -4 -4 -4 -4 -4 -4 -4 -4 -4 -5
-0 -1 -1 -1 -1 -1 -1 -2 -2 -2 -2 -2 -2 -2 -2 -3 -3 -3 -3 -3 -3 -3 -3 -3 -3 -3 -3 -3 -3 -4 -4 -4 -4 -4 -4 -4 -4 -5 -5 -5 -5 -5 -5 -5
-1 -1 -1 -1 -1 -2 -2 -2 -2 -2 -2 -2 -2 -2 -2 -3 -3 -3 -3 -3 -3 -3 -3 -3 -4 -4 -4 -4 -4 -4 -4 -4 -4 -4 -5 -5 -5 -5 -5 -5 -5 -5 -5 -5
-1 -1 -1 -1 -2 -2 -2 -2 -2 -2 -3 -3 -3 -2 -3 -3 -3 -3 -3 -3 -3 -4 -4 -4 -4 -4 -4 -4 -4 -4 -5 -5 -5 -5 -5 -5 -5 -5 -5 -5 -6 -6 -6 -6

GEFSNGP_850_meantemp_084.txt.gz
Temperature
6 7 7 7 7 7 7 6 6 7 8 9 9 9 9 10 10 10 10 10 11 11 11 11 11 10 10 10 9 9 9 9 9 9 9 9 9 8 8 8 8 7 7 7
6 7 7 7 7 7 7 7 7 7 8 8 9 9 9 9 9 9 9 9 10 10 10 10 10 10 10 9 9 9 8 8 8 8 8 8 8 8 8 7 7 7 6 6
5 6 6 6 6 7 7 7 7 7 7 8 7 8 8 8 8 8 8 9 9 9 9 9 9 9 9 9 8 8 8 8 8 8 8 8 7 7 7 7 6 6 5 5
4 5 5 6 7 7 7 6 6 6 6 6 7 7 7 7 7 8 8 8 8 8 9 9 9 9 9 8 8 8 8 8 8 7 7 7 7 7 6 6 5 5 4 4
4 4 5 6 7 7 6 6 5 5 5 6 6 6 6 6 6 7 7 7 8 8 8 8 8 8 8 8 8 8 8 8 8 7 7 7 6 6 5 5 5 4 4 3
4 4 5 6 6 7 6 5 5 5 5 5 5 5 5 6 6 6 6 7 7 7 8 8 8 8 8 8 8 8 8 8 7 7 7 6 6 5 5 4 4 3 3 2
3 4 4 5 5 6 5 5 5 4 4 4 4 4 5 5 5 6 6 6 6 7 7 7 7 7 7 7 7 7 7 7 7 6 6 5 5 4 4 3 3 3 2 2
3 3 4 5 5 4 4 4 4 4 4 4 4 4 4 4 5 5 5 5 6 6 6 6 6 7 7 6 6 6 6 6 6 5 5 5 4 4 3 3 2 2 2 1
3 4 4 4 4 4 4 3 3 3 3 3 3 3 4 4 4 4 4 5 5 5 5 6 6 6 6 6 6 5 5 5 5 5 4 4 3 3 2 2 2 2 1 1
2 3 3 3 3 3 3 3 3 3 3 3 3 3 3 3 3 3 4 4 4 4 5 5 5 5 5 5 5 5 4 4 4 4 3 3 3 2 2 2 1 1 1 1
2 2 2 3 3 3 2 2 2 2 2 2 2 2 2 2 3 3 3 3 3 4 4 4 4 4 4 4 4 4 4 4 4 3 3 3 2 2 2 1 1 1 1 1
1 2 2 2 2 2 2 2 2 1 1 1 1 1 2 2 2 2 2 2 3 3 3 3 4 4 4 4 4 4 3 3 3 3 2 2 2 1 1 1 1 1 1 0
3 3 3 2 2 1 1 1 1 1 1 1 1 1 1 1 1 1 1 2 2 2 2 3 3 3 3 3 3 3 3 3 2 2 2 1 1 1 1 1 1 0 0 0
3 2 2 2 1 1 1 0 0 0 0 0 0 0 0 0 1 1 1 1 1 1 2 2 2 2 2 2 2 2 2 2 2 1 1 1 1 1 0 0 0 0 0 0
2 2 2 1 1 0 0 -0 -0 -0 -0 -0 -0 -0 -0 -0 0 0 0 0 0 0 1 1 1 1 1 1 1 1 1 1 1 1 1 0 0 0 0 -0 -0 -0 0 0
2 2 1 1 1 0 -0 -0 -1 -1 -1 -1 -1 -1 -1 -1 -1 -0 -0 -0 -0 -0 -0 0 0 0 0 1 1 1 1 1 1 1 0 0 -0 -0 -0 -0 -0 -0 -0 -0
1 1 1 1 0 -0 -0 -1 -1 -1 -2 -2 -2 -1 -1 -2 -1 -1 -1 -1 -1 -1 -1 -1 -1 -1 -0 -0 -0 -0 -0 0 -0 -0 -0 -0 -0 -1 -1 -1 -1 -1 -1 -1
2 1 1 1 0 -0 -1 -1 -1 -1 -2 -2 -2 -2 -2 -2 -2 -2 -2 -2 -2 -1 -1 -1 -1 -1 -1 -1 -1 -1 -1 -1 -1 -1 -1 -1 -1 -1 -1 -1 -1 -1 -1 -1
1 1 1 0 -0 -1 -1 -1 -1 -1 -2 -2 -2 -2 -2 -2 -2 -2 -2 -2 -2 -2 -2 -2 -2 -2 -2 -2 -2 -2 -2 -2 -2 -2 -2 -2 -2 -2 -2 -2 -2 -2 -2 -2
1 1 1 0 -0 -0 -1 -1 -1 -2 -2 -2 -2 -3 -3 -3 -3 -3 -3 -3 -2 -3 -3 -2 -2 -2 -2 -2 -2 -2 -2 -2 -2 -2 -2 -2 -2 -2 -2 -2 -2 -2 -2 -2
1 1 0 0 -0 -0 -1 -1 -1 -2 -2 -2 -3 -3 -3 -3 -3 -3 -3 -3 -3 -3 -3 -3 -3 -3 -3 -3 -3 -3 -3 -3 -3 -3 -3 -3 -3 -3 -3 -3 -3 -3 -3 -3
1 1 0 -0 -0 -1 -1 -1 -2 -2 -2 -2 -2 -3 -3 -3 -3 -3 -3 -3 -3 -3 -3 -3 -3 -3 -3 -3 -3 -3 -3 -3 -3 -3 -4 -4 -4 -3 -3 -3 -4 -4 -4 -4
1 0 -0 -1 -1 -1 -1 -1 -2 -2 -2 -2 -3 -3 -3 -3 -3 -3 -3 -3 -3 -3 -3 -3 -3 -3 -4 -4 -4 -4 -4 -4 -4 -4 -4 -4 -4 -4 -4 -4 -4 -4 -4 -4
0 -0 -1 -1 -1 -1 -1 -1 -2 -2 -2 -3 -3 -3 -3 -3 -3 -3 -3 -3 -4 -4 -4 -4 -4 -4 -4 -4 -4 -4 -4 -4 -4 -4 -4 -4 -4 -5 -5 -5 -5 -5 -5 -5
-0 -1 -1 -1 -1 -1 -2 -2 -2 -2 -3 -3 -3 -3 -3 -3 -3 -3 -4 -4 -4 -4 -4 -4 -4 -4 -4 -4 -4 -4 -4 -4 -5 -5 -5 -5 -5 -5 -5 -5 -5 -5 -5 -5
-1 -1 -1 -1 -2 -2 -3 -3 -3 -3 -3 -3 -3 -3 -3 -3 -4 -4 -4 -4 -4 -4 -4 -4 -4 -5 -5 -5 -5 -5 -5 -5 -5 -5 -5 -5 -5 -5 -5 -5 -5 -5 -5 -5
-1 -1 -2 -2 -2 -3 -3 -3 -3 -3 -4 -4 -4 -3 -4 -4 -4 -4 -4 -4 -4 -4 -4 -4 -5 -5 -5 -5 -5 -5 -5 -5 -5 -5 -5 -5 -5 -5 -5 -6 -6 -6 -6 -6